www.cux-wetter.de
Wetterdaten: Samstag, 15.08.2015
Datum Zeit Temp. A. Feuchte A. Luftdruck Regen Wind Richtung Richtung Sonnenschein Solar Taupunkt Windchill Windben
15.08.2015 00:00 19,7 C 95 % 1005,5 hPa 0,0 l/m 0,0 km/h (0 Bft) NO 53 0 min 0 W/m 18,9 C 19,7 C 0,0 km/h (0 Bft)
15.08.2015 00:03 19,8 C 96 % 1005,6 hPa 0,0 l/m 0,0 km/h (0 Bft) NO 53 0 min 0 W/m 19,1 C 19,8 C 0,0 km/h (0 Bft)
15.08.2015 00:06 19,8 C 96 % 1005,6 hPa 0,0 l/m 1,0 km/h (0 Bft) NO 46 0 min 0 W/m 19,1 C 19,8 C 3,2 km/h (1 Bft)
15.08.2015 00:09 19,8 C 95 % 1005,7 hPa 0,0 l/m 1,6 km/h (1 Bft) NO 34 0 min 0 W/m 19,0 C 19,8 C 3,2 km/h (1 Bft)
15.08.2015 00:12 19,7 C 95 % 1005,7 hPa 0,0 l/m 0,3 km/h (0 Bft) NO 34 0 min 0 W/m 18,9 C 19,7 C 1,6 km/h (1 Bft)
15.08.2015 00:15 19,7 C 96 % 1005,7 hPa 0,0 l/m 0,5 km/h (0 Bft) NO 34 0 min 0 W/m 19,0 C 19,7 C 1,6 km/h (1 Bft)
15.08.2015 00:18 19,7 C 95 % 1005,7 hPa 0,0 l/m 0,5 km/h (0 Bft) NO 34 0 min 0 W/m 18,9 C 19,7 C 3,2 km/h (1 Bft)
15.08.2015 00:21 19,7 C 95 % 1005,7 hPa 0,0 l/m 1,4 km/h (1 Bft) NO 34 0 min 0 W/m 18,9 C 19,7 C 3,2 km/h (1 Bft)
15.08.2015 00:24 19,7 C 95 % 1005,8 hPa 0,0 l/m 2,1 km/h (1 Bft) O-NO 73 0 min 0 W/m 18,9 C 19,7 C 6,4 km/h (2 Bft)
15.08.2015 00:27 19,8 C 96 % 1005,9 hPa 0,0 l/m 1,3 km/h (1 Bft) O-SO 113 0 min 0 W/m 19,1 C 19,8 C 3,2 km/h (1 Bft)
15.08.2015 00:30 19,8 C 96 % 1005,9 hPa 0,0 l/m 1,8 km/h (1 Bft) O-SO 112 0 min 0 W/m 19,1 C 19,8 C 4,8 km/h (1 Bft)
15.08.2015 00:33 19,8 C 96 % 1006,0 hPa 0,0 l/m 1,9 km/h (1 Bft) O-SO 107 0 min 0 W/m 19,1 C 19,8 C 3,2 km/h (1 Bft)
15.08.2015 00:36 19,8 C 96 % 1006,1 hPa 0,0 l/m 2,1 km/h (1 Bft) SO 129 0 min 0 W/m 19,1 C 19,8 C 3,2 km/h (1 Bft)
15.08.2015 00:39 19,9 C 95 % 1006,4 hPa 0,0 l/m 2,7 km/h (1 Bft) S-SO 155 0 min 0 W/m 19,1 C 19,9 C 6,4 km/h (2 Bft)
15.08.2015 00:42 19,9 C 95 % 1006,6 hPa 0,0 l/m 2,9 km/h (1 Bft) S-SO 159 0 min 0 W/m 19,1 C 19,9 C 6,4 km/h (2 Bft)
15.08.2015 00:45 19,9 C 95 % 1006,9 hPa 0,2 l/m 2,2 km/h (1 Bft) O-SO 121 0 min 0 W/m 19,1 C 19,9 C 3,2 km/h (1 Bft)
15.08.2015 00:48 20,0 C 95 % 1006,9 hPa 0,0 l/m 4,8 km/h (1 Bft) O-NO 59 0 min 0 W/m 19,2 C 20,0 C 12,9 km/h (3 Bft)
15.08.2015 00:51 20,1 C 95 % 1006,9 hPa 0,2 l/m 4,4 km/h (1 Bft) O-SO 106 0 min 0 W/m 19,3 C 20,1 C 11,3 km/h (2 Bft)
15.08.2015 00:54 20,1 C 95 % 1007,0 hPa 0,0 l/m 6,1 km/h (2 Bft) O 96 0 min 0 W/m 19,3 C 20,1 C 12,9 km/h (3 Bft)
15.08.2015 00:57 20,2 C 95 % 1006,9 hPa 0,0 l/m 6,2 km/h (2 Bft) S 178 0 min 0 W/m 19,4 C 20,2 C 16,1 km/h (3 Bft)
15.08.2015 01:00 20,2 C 94 % 1006,8 hPa 0,0 l/m 9,1 km/h (2 Bft) S 172 0 min 0 W/m 19,2 C 19,2 C 17,7 km/h (3 Bft)
15.08.2015 01:03 20,3 C 94 % 1006,8 hPa 0,0 l/m 7,2 km/h (2 Bft) SO 143 0 min 0 W/m 19,3 C 20,0 C 16,1 km/h (3 Bft)
15.08.2015 01:06 20,3 C 94 % 1006,9 hPa 0,0 l/m 6,9 km/h (2 Bft) SO 145 0 min 0 W/m 19,3 C 20,1 C 16,1 km/h (3 Bft)
15.08.2015 01:09 20,3 C 94 % 1006,8 hPa 0,0 l/m 8,0 km/h (2 Bft) S 176 0 min 0 W/m 19,3 C 19,7 C 19,3 km/h (3 Bft)
15.08.2015 01:12 20,4 C 95 % 1006,6 hPa 0,2 l/m 9,5 km/h (2 Bft) O-SO 108 0 min 0 W/m 19,6 C 19,2 C 20,9 km/h (4 Bft)
15.08.2015 01:15 20,4 C 95 % 1006,5 hPa 0,0 l/m 6,8 km/h (2 Bft) O-NO 70 0 min 0 W/m 19,6 C 20,2 C 17,7 km/h (3 Bft)
15.08.2015 01:18 20,3 C 95 % 1006,3 hPa 0,0 l/m 5,9 km/h (2 Bft) S-SW 211 0 min 0 W/m 19,5 C 20,3 C 16,1 km/h (3 Bft)
15.08.2015 01:21 20,3 C 94 % 1006,2 hPa 0,0 l/m 5,8 km/h (2 Bft) SO 143 0 min 0 W/m 19,3 C 20,3 C 12,9 km/h (3 Bft)
15.08.2015 01:24 20,2 C 95 % 1006,1 hPa 0,0 l/m 3,6 km/h (1 Bft) NO 44 0 min 0 W/m 19,4 C 20,2 C 8,0 km/h (2 Bft)
15.08.2015 01:27 20,1 C 95 % 1005,9 hPa 0,0 l/m 2,7 km/h (1 Bft) NO 44 0 min 0 W/m 19,3 C 20,1 C 6,4 km/h (2 Bft)
15.08.2015 01:30 20,1 C 95 % 1005,7 hPa 0,0 l/m 3,1 km/h (1 Bft) NO 48 0 min 0 W/m 19,3 C 20,1 C 6,4 km/h (2 Bft)
15.08.2015 01:33 20,0 C 95 % 1005,6 hPa 0,0 l/m 2,6 km/h (1 Bft) N-NO 27 0 min 0 W/m 19,2 C 20,0 C 6,4 km/h (2 Bft)
15.08.2015 01:36 19,9 C 95 % 1005,5 hPa 0,0 l/m 0,5 km/h (0 Bft) NO 54 0 min 0 W/m 19,1 C 19,9 C 1,6 km/h (1 Bft)
15.08.2015 01:39 19,9 C 95 % 1005,4 hPa 0,0 l/m 1,2 km/h (1 Bft) O 90 0 min 0 W/m 19,1 C 19,9 C 3,2 km/h (1 Bft)
15.08.2015 01:42 19,9 C 95 % 1005,3 hPa 0,0 l/m 0,5 km/h (0 Bft) O 94 0 min 0 W/m 19,1 C 19,9 C 3,2 km/h (1 Bft)
15.08.2015 01:45 19,9 C 95 % 1005,3 hPa 0,0 l/m 1,3 km/h (1 Bft) O 99 0 min 0 W/m 19,1 C 19,9 C 4,8 km/h (1 Bft)
15.08.2015 01:48 19,8 C 95 % 1005,2 hPa 0,0 l/m 0,6 km/h (0 Bft) O 99 0 min 0 W/m 19,0 C 19,8 C 3,2 km/h (1 Bft)
15.08.2015 01:51 19,8 C 95 % 1005,2 hPa 0,0 l/m 0,6 km/h (0 Bft) O 99 0 min 0 W/m 19,0 C 19,8 C 3,2 km/h (1 Bft)
15.08.2015 01:54 19,8 C 95 % 1005,2 hPa 0,0 l/m 3,0 km/h (1 Bft) S 177 0 min 0 W/m 19,0 C 19,8 C 6,4 km/h (2 Bft)
15.08.2015 01:57 19,7 C 95 % 1005,4 hPa 0,0 l/m 2,8 km/h (1 Bft) S-SO 158 0 min 0 W/m 18,9 C 19,7 C 4,8 km/h (1 Bft)
15.08.2015 02:00 19,7 C 95 % 1005,2 hPa 0,0 l/m 4,5 km/h (1 Bft) S-SO 151 0 min 0 W/m 18,9 C 19,7 C 11,3 km/h (2 Bft)
15.08.2015 02:03 19,7 C 95 % 1005,1 hPa 0,0 l/m 4,9 km/h (1 Bft) SO 128 0 min 0 W/m 18,9 C 19,7 C 11,3 km/h (2 Bft)
15.08.2015 02:06 19,6 C 95 % 1005,1 hPa 0,0 l/m 4,7 km/h (1 Bft) SO 128 0 min 0 W/m 18,8 C 19,6 C 9,7 km/h (2 Bft)
15.08.2015 02:09 19,6 C 95 % 1005,2 hPa 0,0 l/m 4,2 km/h (1 Bft) O-SO 123 0 min 0 W/m 18,8 C 19,6 C 8,0 km/h (2 Bft)
15.08.2015 02:12 19,6 C 95 % 1005,0 hPa 0,0 l/m 4,3 km/h (1 Bft) S 169 0 min 0 W/m 18,8 C 19,6 C 9,7 km/h (2 Bft)
15.08.2015 02:15 19,6 C 95 % 1004,9 hPa 0,0 l/m 2,9 km/h (1 Bft) S 180 0 min 0 W/m 18,8 C 19,6 C 6,4 km/h (2 Bft)
15.08.2015 02:18 19,6 C 95 % 1004,8 hPa 0,0 l/m 2,2 km/h (1 Bft) S-SO 158 0 min 0 W/m 18,8 C 19,6 C 4,8 km/h (1 Bft)
15.08.2015 02:21 19,6 C 95 % 1004,7 hPa 0,0 l/m 0,9 km/h (0 Bft) S-SO 158 0 min 0 W/m 18,8 C 19,6 C 3,2 km/h (1 Bft)
15.08.2015 02:24 19,5 C 95 % 1004,6 hPa 0,0 l/m 2,0 km/h (1 Bft) S-SO 158 0 min 0 W/m 18,7 C 19,5 C 3,2 km/h (1 Bft)
15.08.2015 02:27 19,5 C 94 % 1004,5 hPa 0,0 l/m 2,7 km/h (1 Bft) S 183 0 min 0 W/m 18,5 C 19,5 C 4,8 km/h (1 Bft)
15.08.2015 02:30 19,5 C 94 % 1004,5 hPa 0,0 l/m 2,7 km/h (1 Bft) SW 231 0 min 0 W/m 18,5 C 19,5 C 4,8 km/h (1 Bft)
15.08.2015 02:33 19,6 C 94 % 1004,4 hPa 0,0 l/m 3,5 km/h (1 Bft) W-SW 251 0 min 0 W/m 18,6 C 19,6 C 4,8 km/h (1 Bft)
15.08.2015 02:36 19,6 C 94 % 1004,2 hPa 0,2 l/m 0,7 km/h (0 Bft) W-SW 251 0 min 0 W/m 18,6 C 19,6 C 3,2 km/h (1 Bft)
15.08.2015 02:39 19,6 C 94 % 1004,3 hPa 0,0 l/m 3,1 km/h (1 Bft) SW 229 0 min 0 W/m 18,6 C 19,6 C 4,8 km/h (1 Bft)
15.08.2015 02:42 19,6 C 94 % 1004,1 hPa 0,0 l/m 3,2 km/h (1 Bft) NW 306 0 min 0 W/m 18,6 C 19,6 C 4,8 km/h (1 Bft)
15.08.2015 02:45 19,6 C 94 % 1004,2 hPa 0,0 l/m 1,8 km/h (1 Bft) W-SW 250 0 min 0 W/m 18,6 C 19,6 C 4,8 km/h (1 Bft)
15.08.2015 02:48 19,6 C 94 % 1004,2 hPa 0,0 l/m 1,9 km/h (1 Bft) W 267 0 min 0 W/m 18,6 C 19,6 C 4,8 km/h (1 Bft)
15.08.2015 02:51 19,7 C 94 % 1004,3 hPa 0,0 l/m 2,9 km/h (1 Bft) SW 232 0 min 0 W/m 18,7 C 19,7 C 6,4 km/h (2 Bft)
15.08.2015 02:54 19,7 C 94 % 1004,4 hPa 0,0 l/m 2,4 km/h (1 Bft) SW 221 0 min 0 W/m 18,7 C 19,7 C 4,8 km/h (1 Bft)
15.08.2015 02:57 19,6 C 94 % 1004,3 hPa 0,0 l/m 1,3 km/h (1 Bft) SW 221 0 min 0 W/m 18,6 C 19,6 C 3,2 km/h (1 Bft)
15.08.2015 03:00 19,6 C 94 % 1004,3 hPa 0,0 l/m 0,3 km/h (0 Bft) SW 221 0 min 0 W/m 18,6 C 19,6 C 1,6 km/h (1 Bft)
15.08.2015 03:03 19,5 C 94 % 1004,5 hPa 0,0 l/m 2,2 km/h (1 Bft) SW 221 0 min 0 W/m 18,5 C 19,5 C 3,2 km/h (1 Bft)
15.08.2015 03:06 19,4 C 95 % 1004,6 hPa 0,0 l/m 1,0 km/h (0 Bft) SW 221 0 min 0 W/m 18,6 C 19,4 C 1,6 km/h (1 Bft)
15.08.2015 03:09 19,4 C 95 % 1004,7 hPa 0,0 l/m 0,6 km/h (0 Bft) SW 221 0 min 0 W/m 18,6 C 19,4 C 1,6 km/h (1 Bft)
15.08.2015 03:12 19,3 C 95 % 1004,8 hPa 0,0 l/m 0,9 km/h (0 Bft) SW 221 0 min 0 W/m 18,5 C 19,3 C 3,2 km/h (1 Bft)
15.08.2015 03:15 19,3 C 95 % 1004,8 hPa 0,0 l/m 0,1 km/h (0 Bft) SW 221 0 min 0 W/m 18,5 C 19,3 C 1,6 km/h (1 Bft)
15.08.2015 03:18 19,3 C 95 % 1004,7 hPa 0,0 l/m 1,7 km/h (1 Bft) SW 221 0 min 0 W/m 18,5 C 19,3 C 3,2 km/h (1 Bft)
15.08.2015 03:21 19,3 C 95 % 1004,9 hPa 0,0 l/m 2,9 km/h (1 Bft) NO 53 0 min 0 W/m 18,5 C 19,3 C 6,4 km/h (2 Bft)
15.08.2015 03:24 19,2 C 95 % 1005,0 hPa 0,0 l/m 3,3 km/h (1 Bft) O-NO 71 0 min 0 W/m 18,4 C 19,2 C 6,4 km/h (2 Bft)
15.08.2015 03:27 19,2 C 96 % 1005,0 hPa 0,0 l/m 5,2 km/h (1 Bft) N-NW 342 0 min 0 W/m 18,5 C 19,2 C 9,7 km/h (2 Bft)
15.08.2015 03:30 19,2 C 96 % 1005,1 hPa 0,0 l/m 4,6 km/h (1 Bft) N-NO 26 0 min 0 W/m 18,5 C 19,2 C 8,0 km/h (2 Bft)
15.08.2015 03:33 19,2 C 96 % 1005,1 hPa 0,0 l/m 2,1 km/h (1 Bft) O-NO 65 0 min 0 W/m 18,5 C 19,2 C 6,4 km/h (2 Bft)
15.08.2015 03:36 19,2 C 96 % 1004,9 hPa 0,0 l/m 2,0 km/h (1 Bft) O-NO 65 0 min 0 W/m 18,5 C 19,2 C 3,2 km/h (1 Bft)
15.08.2015 03:39 19,1 C 96 % 1005,0 hPa 0,0 l/m 0,8 km/h (0 Bft) O 88 0 min 0 W/m 18,4 C 19,1 C 3,2 km/h (1 Bft)
15.08.2015 03:42 19,1 C 96 % 1005,0 hPa 0,0 l/m 0,8 km/h (0 Bft) O 88 0 min 0 W/m 18,4 C 19,1 C 3,2 km/h (1 Bft)
15.08.2015 03:45 19,0 C 96 % 1004,9 hPa 0,0 l/m 2,6 km/h (1 Bft) O-NO 78 0 min 0 W/m 18,3 C 19,0 C 3,2 km/h (1 Bft)
15.08.2015 03:48 19,0 C 96 % 1004,9 hPa 0,0 l/m 2,0 km/h (1 Bft) O 98 0 min 0 W/m 18,3 C 19,0 C 4,8 km/h (1 Bft)
15.08.2015 03:51 19,0 C 96 % 1004,8 hPa 0,0 l/m 2,9 km/h (1 Bft) SO 139 0 min 0 W/m 18,3 C 19,0 C 6,4 km/h (2 Bft)
15.08.2015 03:54 19,1 C 96 % 1004,7 hPa 0,0 l/m 0,6 km/h (0 Bft) SO 140 0 min 0 W/m 18,4 C 19,1 C 1,6 km/h (1 Bft)
15.08.2015 03:57 19,1 C 96 % 1004,8 hPa 0,0 l/m 0,5 km/h (0 Bft) SO 139 0 min 0 W/m 18,4 C 19,1 C 1,6 km/h (1 Bft)
15.08.2015 04:00 19,1 C 96 % 1004,8 hPa 0,0 l/m 1,3 km/h (1 Bft) SO 139 0 min 0 W/m 18,4 C 19,1 C 3,2 km/h (1 Bft)
15.08.2015 04:03 19,1 C 96 % 1004,7 hPa 0,0 l/m 2,5 km/h (1 Bft) NO 40 0 min 0 W/m 18,4 C 19,1 C 4,8 km/h (1 Bft)
15.08.2015 04:06 19,1 C 96 % 1004,7 hPa 0,0 l/m 1,7 km/h (1 Bft) NO 41 0 min 0 W/m 18,4 C 19,1 C 3,2 km/h (1 Bft)
15.08.2015 04:09 18,9 C 96 % 1004,6 hPa 0,0 l/m 0,3 km/h (0 Bft) NO 41 0 min 0 W/m 18,2 C 18,9 C 1,6 km/h (1 Bft)
15.08.2015 04:12 18,9 C 96 % 1004,4 hPa 0,0 l/m 0,1 km/h (0 Bft) NO 41 0 min 0 W/m 18,2 C 18,9 C 1,6 km/h (1 Bft)
15.08.2015 04:15 18,8 C 96 % 1004,3 hPa 0,0 l/m 0,0 km/h (0 Bft) NO 41 0 min 0 W/m 18,1 C 18,8 C 0,0 km/h (0 Bft)
15.08.2015 04:18 18,8 C 96 % 1004,2 hPa 0,0 l/m 0,1 km/h (0 Bft) NO 41 0 min 0 W/m 18,1 C 18,8 C 1,6 km/h (1 Bft)
15.08.2015 04:21 18,9 C 97 % 1004,3 hPa 0,0 l/m 0,9 km/h (0 Bft) NO 41 0 min 0 W/m 18,4 C 18,9 C 1,6 km/h (1 Bft)
15.08.2015 04:24 19,0 C 97 % 1004,2 hPa 0,0 l/m 0,4 km/h (0 Bft) NO 41 0 min 0 W/m 18,5 C 19,0 C 1,6 km/h (1 Bft)
15.08.2015 04:27 19,0 C 96 % 1004,1 hPa 0,0 l/m 0,6 km/h (0 Bft) NO 41 0 min 0 W/m 18,3 C 19,0 C 1,6 km/h (1 Bft)
15.08.2015 04:30 19,0 C 96 % 1004,2 hPa 0,0 l/m 1,5 km/h (1 Bft) NO 41 0 min 0 W/m 18,3 C 19,0 C 3,2 km/h (1 Bft)
15.08.2015 04:33 19,0 C 96 % 1004,3 hPa 0,0 l/m 1,5 km/h (1 Bft) NO 41 0 min 0 W/m 18,3 C 19,0 C 1,6 km/h (1 Bft)
15.08.2015 04:36 19,0 C 97 % 1004,3 hPa 0,0 l/m 0,4 km/h (0 Bft) NO 41 0 min 0 W/m 18,5 C 19,0 C 1,6 km/h (1 Bft)
15.08.2015 04:39 19,0 C 97 % 1004,4 hPa 0,0 l/m 0,0 km/h (0 Bft) NO 41 0 min 0 W/m 18,5 C 19,0 C 0,0 km/h (0 Bft)
15.08.2015 04:42 19,1 C 97 % 1004,5 hPa 0,0 l/m 1,8 km/h (1 Bft) NO 41 0 min 0 W/m 18,6 C 19,1 C 3,2 km/h (1 Bft)
15.08.2015 04:45 19,1 C 97 % 1004,5 hPa 0,0 l/m 1,4 km/h (1 Bft) O-SO 108 0 min 0 W/m 18,6 C 19,1 C 3,2 km/h (1 Bft)
15.08.2015 04:48 19,1 C 97 % 1004,6 hPa 0,0 l/m 1,2 km/h (1 Bft) O-SO 123 0 min 0 W/m 18,6 C 19,1 C 3,2 km/h (1 Bft)
15.08.2015 04:51 19,1 C 97 % 1004,6 hPa 0,0 l/m 1,3 km/h (1 Bft) O-SO 122 0 min 0 W/m 18,6 C 19,1 C 3,2 km/h (1 Bft)
15.08.2015 04:54 19,1 C 97 % 1004,7 hPa 0,0 l/m 1,9 km/h (1 Bft) O-SO 106 0 min 0 W/m 18,6 C 19,1 C 4,8 km/h (1 Bft)
15.08.2015 04:57 19,1 C 97 % 1004,8 hPa 0,0 l/m 2,1 km/h (1 Bft) O 87 0 min 0 W/m 18,6 C 19,1 C 4,8 km/h (1 Bft)
15.08.2015 05:00 19,1 C 97 % 1004,8 hPa 0,0 l/m 2,1 km/h (1 Bft) O-NO 70 0 min 0 W/m 18,6 C 19,1 C 4,8 km/h (1 Bft)
15.08.2015 05:03 19,0 C 97 % 1004,8 hPa 0,0 l/m 1,7 km/h (1 Bft) O-NO 62 0 min 0 W/m 18,5 C 19,0 C 4,8 km/h (1 Bft)
15.08.2015 05:06 19,0 C 97 % 1004,8 hPa 0,0 l/m 1,2 km/h (1 Bft) O 90 0 min 0 W/m 18,5 C 19,0 C 3,2 km/h (1 Bft)
15.08.2015 05:09 18,9 C 97 % 1004,8 hPa 0,0 l/m 1,2 km/h (1 Bft) N-NO 22 0 min 0 W/m 18,4 C 18,9 C 4,8 km/h (1 Bft)
15.08.2015 05:12 18,9 C 97 % 1005,0 hPa 0,0 l/m 1,1 km/h (1 Bft) NO 53 0 min 0 W/m 18,4 C 18,9 C 3,2 km/h (1 Bft)
15.08.2015 05:15 18,9 C 97 % 1005,0 hPa 0,0 l/m 1,0 km/h (0 Bft) NO 53 0 min 0 W/m 18,4 C 18,9 C 1,6 km/h (1 Bft)
15.08.2015 05:18 18,9 C 97 % 1004,9 hPa 0,0 l/m 2,0 km/h (1 Bft) O-NO 75 0 min 0 W/m 18,4 C 18,9 C 4,8 km/h (1 Bft)
15.08.2015 05:21 18,9 C 97 % 1005,0 hPa 0,0 l/m 0,2 km/h (0 Bft) O-NO 75 0 min 0 W/m 18,4 C 18,9 C 1,6 km/h (1 Bft)
15.08.2015 05:24 19,0 C 97 % 1005,1 hPa 0,0 l/m 1,5 km/h (1 Bft) O-NO 76 0 min 0 W/m 18,5 C 19,0 C 3,2 km/h (1 Bft)
15.08.2015 05:27 19,0 C 97 % 1005,0 hPa 0,0 l/m 1,4 km/h (1 Bft) O-NO 75 0 min 0 W/m 18,5 C 19,0 C 3,2 km/h (1 Bft)
15.08.2015 05:30 19,0 C 97 % 1004,9 hPa 0,0 l/m 1,4 km/h (1 Bft) O-NO 64 0 min 0 W/m 18,5 C 19,0 C 3,2 km/h (1 Bft)
15.08.2015 05:33 18,9 C 97 % 1004,9 hPa 0,0 l/m 0,9 km/h (0 Bft) O-NO 64 0 min 0 W/m 18,4 C 18,9 C 1,6 km/h (1 Bft)
15.08.2015 05:36 19,0 C 97 % 1005,0 hPa 0,0 l/m 0,5 km/h (0 Bft) O-NO 64 0 min 0 W/m 18,5 C 19,0 C 1,6 km/h (1 Bft)
15.08.2015 05:39 19,0 C 97 % 1005,0 hPa 0,0 l/m 0,2 km/h (0 Bft) O-NO 64 0 min 0 W/m 18,5 C 19,0 C 1,6 km/h (1 Bft)
15.08.2015 05:42 19,0 C 97 % 1005,0 hPa 0,0 l/m 0,2 km/h (0 Bft) O-NO 64 0 min 0 W/m 18,5 C 19,0 C 1,6 km/h (1 Bft)
15.08.2015 05:45 18,9 C 97 % 1005,0 hPa 0,0 l/m 0,9 km/h (0 Bft) O-NO 64 0 min 0 W/m 18,4 C 18,9 C 1,6 km/h (1 Bft)
15.08.2015 05:48 18,9 C 97 % 1004,9 hPa 0,0 l/m 2,2 km/h (1 Bft) O-NO 64 0 min 0 W/m 18,4 C 18,9 C 3,2 km/h (1 Bft)
15.08.2015 05:51 18,8 C 97 % 1004,9 hPa 0,0 l/m 0,7 km/h (0 Bft) O-NO 63 0 min 0 W/m 18,3 C 18,8 C 3,2 km/h (1 Bft)
15.08.2015 05:54 18,8 C 97 % 1004,9 hPa 0,0 l/m 0,9 km/h (0 Bft) O-NO 64 0 min 0 W/m 18,3 C 18,8 C 1,6 km/h (1 Bft)
15.08.2015 05:57 18,8 C 97 % 1004,9 hPa 0,0 l/m 0,1 km/h (0 Bft) O-NO 64 0 min 0 W/m 18,3 C 18,8 C 1,6 km/h (1 Bft)
15.08.2015 06:00 18,8 C 97 % 1004,9 hPa 0,0 l/m 0,6 km/h (0 Bft) O-NO 64 0 min 0 W/m 18,3 C 18,8 C 1,6 km/h (1 Bft)
15.08.2015 06:03 18,7 C 97 % 1004,8 hPa 0,0 l/m 0,6 km/h (0 Bft) O-NO 64 0 min 0 W/m 18,2 C 18,7 C 1,6 km/h (1 Bft)
15.08.2015 06:06 18,7 C 97 % 1004,8 hPa 0,0 l/m 0,4 km/h (0 Bft) O-NO 64 0 min 0 W/m 18,2 C 18,7 C 1,6 km/h (1 Bft)
15.08.2015 06:09 18,7 C 97 % 1004,7 hPa 0,0 l/m 0,0 km/h (0 Bft) O-NO 64 0 min 0 W/m 18,2 C 18,7 C 0,0 km/h (0 Bft)
15.08.2015 06:12 18,8 C 97 % 1004,7 hPa 0,0 l/m 0,7 km/h (0 Bft) O-NO 64 0 min 0 W/m 18,3 C 18,8 C 3,2 km/h (1 Bft)
15.08.2015 06:15 18,7 C 97 % 1004,8 hPa 0,0 l/m 2,2 km/h (1 Bft) O-NO 64 0 min 0 W/m 18,2 C 18,7 C 3,2 km/h (1 Bft)
15.08.2015 06:18 18,7 C 97 % 1004,9 hPa 0,0 l/m 1,6 km/h (1 Bft) O-NO 64 0 min 5 W/m 18,2 C 18,7 C 3,2 km/h (1 Bft)
15.08.2015 06:21 18,6 C 97 % 1005,0 hPa 0,0 l/m 1,0 km/h (0 Bft) O-NO 64 0 min 5 W/m 18,1 C 18,6 C 3,2 km/h (1 Bft)
15.08.2015 06:24 18,7 C 97 % 1005,0 hPa 0,0 l/m 1,0 km/h (0 Bft) O-NO 64 0 min 7 W/m 18,2 C 18,7 C 3,2 km/h (1 Bft)
15.08.2015 06:27 18,7 C 97 % 1005,0 hPa 0,0 l/m 0,0 km/h (0 Bft) O-NO 64 0 min 14 W/m 18,2 C 18,7 C 1,6 km/h (1 Bft)
15.08.2015 06:30 18,7 C 97 % 1005,0 hPa 0,0 l/m 0,8 km/h (0 Bft) O-NO 64 0 min 16 W/m 18,2 C 18,7 C 1,6 km/h (1 Bft)
15.08.2015 06:33 18,7 C 97 % 1005,0 hPa 0,0 l/m 0,1 km/h (0 Bft) O-NO 64 0 min 16 W/m 18,2 C 18,7 C 1,6 km/h (1 Bft)
15.08.2015 06:36 18,7 C 97 % 1004,9 hPa 0,0 l/m 0,0 km/h (0 Bft) O-NO 64 0 min 14 W/m 18,2 C 18,7 C 1,6 km/h (1 Bft)
15.08.2015 06:39 18,7 C 97 % 1004,9 hPa 0,0 l/m 0,1 km/h (0 Bft) O-NO 64 0 min 16 W/m 18,2 C 18,7 C 1,6 km/h (1 Bft)
15.08.2015 06:42 18,6 C 97 % 1004,9 hPa 0,0 l/m 0,0 km/h (0 Bft) O-NO 64 0 min 19 W/m 18,1 C 18,6 C 1,6 km/h (1 Bft)
15.08.2015 06:45 18,6 C 97 % 1004,9 hPa 0,0 l/m 0,0 km/h (0 Bft) O-NO 64 0 min 23 W/m 18,1 C 18,6 C 0,0 km/h (0 Bft)
15.08.2015 06:48 18,6 C 97 % 1004,8 hPa 0,0 l/m 0,4 km/h (0 Bft) O-NO 64 0 min 25 W/m 18,1 C 18,6 C 1,6 km/h (1 Bft)
15.08.2015 06:51 18,6 C 97 % 1004,8 hPa 0,0 l/m 0,1 km/h (0 Bft) O-NO 64 0 min 25 W/m 18,1 C 18,6 C 1,6 km/h (1 Bft)
15.08.2015 06:54 18,6 C 97 % 1004,8 hPa 0,0 l/m 0,5 km/h (0 Bft) O-NO 64 0 min 26 W/m 18,1 C 18,6 C 1,6 km/h (1 Bft)
15.08.2015 06:57 18,6 C 97 % 1004,9 hPa 0,0 l/m 0,1 km/h (0 Bft) O-NO 63 0 min 30 W/m 18,1 C 18,6 C 1,6 km/h (1 Bft)
15.08.2015 07:00 18,6 C 97 % 1004,9 hPa 0,0 l/m 0,0 km/h (0 Bft) O-NO 64 0 min 33 W/m 18,1 C 18,6 C 0,0 km/h (0 Bft)
15.08.2015 07:03 18,6 C 97 % 1005,0 hPa 0,0 l/m 0,7 km/h (0 Bft) O-NO 64 0 min 33 W/m 18,1 C 18,6 C 1,6 km/h (1 Bft)
15.08.2015 07:06 18,6 C 97 % 1005,0 hPa 0,0 l/m 1,0 km/h (0 Bft) O-NO 63 0 min 32 W/m 18,1 C 18,6 C 3,2 km/h (1 Bft)
15.08.2015 07:09 18,7 C 97 % 1005,0 hPa 0,0 l/m 1,3 km/h (1 Bft) O-NO 64 0 min 30 W/m 18,2 C 18,7 C 3,2 km/h (1 Bft)
15.08.2015 07:12 18,6 C 97 % 1005,1 hPa 0,0 l/m 1,7 km/h (1 Bft) O-NO 75 0 min 30 W/m 18,1 C 18,6 C 4,8 km/h (1 Bft)
15.08.2015 07:15 18,7 C 97 % 1005,1 hPa 0,0 l/m 2,0 km/h (1 Bft) O-SO 115 0 min 32 W/m 18,2 C 18,7 C 4,8 km/h (1 Bft)
15.08.2015 07:18 18,8 C 97 % 1005,1 hPa 0,0 l/m 2,0 km/h (1 Bft) SO 132 0 min 40 W/m 18,3 C 18,8 C 4,8 km/h (1 Bft)
15.08.2015 07:21 18,8 C 98 % 1005,0 hPa 0,0 l/m 2,2 km/h (1 Bft) SO 140 0 min 47 W/m 18,5 C 18,8 C 8,0 km/h (2 Bft)
15.08.2015 07:24 18,9 C 98 % 1005,0 hPa 0,0 l/m 1,2 km/h (1 Bft) O-NO 63 0 min 58 W/m 18,6 C 18,9 C 4,8 km/h (1 Bft)
15.08.2015 07:27 18,9 C 97 % 1005,0 hPa 0,0 l/m 1,7 km/h (1 Bft) NO 50 0 min 69 W/m 18,4 C 18,9 C 4,8 km/h (1 Bft)
15.08.2015 07:30 19,0 C 97 % 1005,0 hPa 0,0 l/m 1,2 km/h (1 Bft) O-NO 60 0 min 76 W/m 18,5 C 19,0 C 3,2 km/h (1 Bft)
15.08.2015 07:33 19,2 C 97 % 1005,0 hPa 0,0 l/m 1,9 km/h (1 Bft) O 101 0 min 79 W/m 18,7 C 19,2 C 4,8 km/h (1 Bft)
15.08.2015 07:36 19,3 C 98 % 1005,0 hPa 0,0 l/m 2,2 km/h (1 Bft) SO 124 0 min 70 W/m 19,0 C 19,3 C 4,8 km/h (1 Bft)
15.08.2015 07:39 19,3 C 97 % 1005,0 hPa 0,0 l/m 1,9 km/h (1 Bft) O 100 0 min 70 W/m 18,8 C 19,3 C 9,7 km/h (2 Bft)
15.08.2015 07:42 19,3 C 97 % 1004,9 hPa 0,0 l/m 2,1 km/h (1 Bft) N-NO 31 0 min 86 W/m 18,8 C 19,3 C 6,4 km/h (2 Bft)
15.08.2015 07:45 19,4 C 97 % 1005,0 hPa 0,0 l/m 1,2 km/h (1 Bft) NO 42 0 min 100 W/m 18,9 C 19,4 C 3,2 km/h (1 Bft)
15.08.2015 07:48 19,4 C 97 % 1005,0 hPa 0,0 l/m 2,1 km/h (1 Bft) O-SO 103 0 min 107 W/m 18,9 C 19,4 C 6,4 km/h (2 Bft)
15.08.2015 07:51 19,6 C 97 % 1005,0 hPa 0,0 l/m 3,7 km/h (1 Bft) O-SO 122 0 min 113 W/m 19,1 C 19,6 C 8,0 km/h (2 Bft)
15.08.2015 07:54 19,7 C 97 % 1005,0 hPa 0,0 l/m 3,0 km/h (1 Bft) O 92 0 min 107 W/m 19,2 C 19,7 C 4,8 km/h (1 Bft)
15.08.2015 07:57 19,8 C 96 % 1005,0 hPa 0,0 l/m 2,4 km/h (1 Bft) O 91 0 min 114 W/m 19,1 C 19,8 C 6,4 km/h (2 Bft)
15.08.2015 08:00 19,8 C 96 % 1004,9 hPa 0,0 l/m 2,3 km/h (1 Bft) NO 53 0 min 121 W/m 19,1 C 19,8 C 4,8 km/h (1 Bft)
15.08.2015 08:03 19,9 C 96 % 1005,0 hPa 0,0 l/m 1,9 km/h (1 Bft) SO 126 0 min 120 W/m 19,2 C 19,9 C 4,8 km/h (1 Bft)
15.08.2015 08:06 19,9 C 95 % 1005,1 hPa 0,0 l/m 2,3 km/h (1 Bft) O-NO 61 0 min 116 W/m 19,1 C 19,9 C 4,8 km/h (1 Bft)
15.08.2015 08:09 19,9 C 95 % 1005,1 hPa 0,0 l/m 2,2 km/h (1 Bft) O-SO 104 0 min 105 W/m 19,1 C 19,9 C 3,2 km/h (1 Bft)
15.08.2015 08:12 20,0 C 95 % 1005,1 hPa 0,0 l/m 3,3 km/h (1 Bft) O-SO 109 0 min 104 W/m 19,2 C 20,0 C 6,4 km/h (2 Bft)
15.08.2015 08:15 20,1 C 95 % 1005,1 hPa 0,0 l/m 2,9 km/h (1 Bft) O-SO 111 0 min 111 W/m 19,3 C 20,1 C 6,4 km/h (2 Bft)
15.08.2015 08:18 20,1 C 95 % 1005,1 hPa 0,0 l/m 2,1 km/h (1 Bft) SO 126 0 min 111 W/m 19,3 C 20,1 C 4,8 km/h (1 Bft)
15.08.2015 08:21 20,1 C 95 % 1005,1 hPa 0,0 l/m 2,5 km/h (1 Bft) SO 143 0 min 98 W/m 19,3 C 20,1 C 6,4 km/h (2 Bft)
15.08.2015 08:24 20,1 C 94 % 1005,1 hPa 0,0 l/m 3,3 km/h (1 Bft) SO 132 0 min 86 W/m 19,1 C 20,1 C 6,4 km/h (2 Bft)
15.08.2015 08:27 20,2 C 94 % 1005,1 hPa 0,0 l/m 2,5 km/h (1 Bft) O-SO 119 0 min 84 W/m 19,2 C 20,2 C 4,8 km/h (1 Bft)
15.08.2015 08:30 20,2 C 94 % 1005,1 hPa 0,0 l/m 1,9 km/h (1 Bft) SO 140 0 min 90 W/m 19,2 C 20,2 C 3,2 km/h (1 Bft)
15.08.2015 08:33 20,2 C 94 % 1005,1 hPa 0,0 l/m 1,7 km/h (1 Bft) O-SO 117 0 min 74 W/m 19,2 C 20,2 C 6,4 km/h (2 Bft)
15.08.2015 08:36 20,2 C 94 % 1005,0 hPa 0,0 l/m 2,5 km/h (1 Bft) NO 42 0 min 58 W/m 19,2 C 20,2 C 4,8 km/h (1 Bft)
15.08.2015 08:39 20,2 C 94 % 1005,0 hPa 0,0 l/m 1,5 km/h (1 Bft) O-NO 76 0 min 40 W/m 19,2 C 20,2 C 3,2 km/h (1 Bft)
15.08.2015 08:42 20,1 C 94 % 1005,1 hPa 0,0 l/m 1,6 km/h (1 Bft) SO 130 0 min 35 W/m 19,1 C 20,1 C 3,2 km/h (1 Bft)
15.08.2015 08:45 20,1 C 94 % 1005,1 hPa 0,0 l/m 4,0 km/h (1 Bft) SO 137 0 min 37 W/m 19,1 C 20,1 C 8,0 km/h (2 Bft)
15.08.2015 08:48 20,1 C 94 % 1005,1 hPa 0,0 l/m 2,7 km/h (1 Bft) O-SO 113 0 min 40 W/m 19,1 C 20,1 C 4,8 km/h (1 Bft)
15.08.2015 08:51 20,1 C 93 % 1005,1 hPa 0,0 l/m 3,0 km/h (1 Bft) SO 126 0 min 40 W/m 18,9 C 20,1 C 4,8 km/h (1 Bft)
15.08.2015 08:54 20,1 C 94 % 1005,1 hPa 0,0 l/m 1,6 km/h (1 Bft) SO 133 0 min 44 W/m 19,1 C 20,1 C 6,4 km/h (2 Bft)
15.08.2015 08:57 20,1 C 94 % 1005,1 hPa 0,0 l/m 2,4 km/h (1 Bft) SO 134 0 min 42 W/m 19,1 C 20,1 C 4,8 km/h (1 Bft)
15.08.2015 09:00 20,1 C 94 % 1005,1 hPa 0,0 l/m 2,6 km/h (1 Bft) S 173 0 min 37 W/m 19,1 C 20,1 C 6,4 km/h (2 Bft)
15.08.2015 09:03 20,1 C 93 % 1005,2 hPa 0,0 l/m 2,3 km/h (1 Bft) S-SO 157 0 min 35 W/m 18,9 C 20,1 C 8,0 km/h (2 Bft)
15.08.2015 09:06 20,1 C 93 % 1005,2 hPa 0,0 l/m 2,9 km/h (1 Bft) S-SO 165 0 min 40 W/m 18,9 C 20,1 C 6,4 km/h (2 Bft)
15.08.2015 09:09 20,1 C 94 % 1005,2 hPa 0,0 l/m 2,8 km/h (1 Bft) S-SO 153 0 min 49 W/m 19,1 C 20,1 C 6,4 km/h (2 Bft)
15.08.2015 09:12 20,1 C 93 % 1005,2 hPa 0,0 l/m 1,9 km/h (1 Bft) S-SO 155 0 min 58 W/m 18,9 C 20,1 C 4,8 km/h (1 Bft)
15.08.2015 09:15 20,0 C 94 % 1005,2 hPa 0,0 l/m 1,9 km/h (1 Bft) S-SO 163 0 min 62 W/m 19,0 C 20,0 C 6,4 km/h (2 Bft)
15.08.2015 09:18 20,0 C 94 % 1005,4 hPa 0,0 l/m 1,9 km/h (1 Bft) S-SO 156 0 min 56 W/m 19,0 C 20,0 C 6,4 km/h (2 Bft)
15.08.2015 09:21 20,0 C 94 % 1005,4 hPa 0,0 l/m 1,9 km/h (1 Bft) S 170 0 min 46 W/m 19,0 C 20,0 C 6,4 km/h (2 Bft)
15.08.2015 09:24 20,0 C 94 % 1005,4 hPa 0,0 l/m 2,1 km/h (1 Bft) S-SO 151 0 min 42 W/m 19,0 C 20,0 C 3,2 km/h (1 Bft)
15.08.2015 09:27 19,9 C 95 % 1005,4 hPa 0,0 l/m 2,4 km/h (1 Bft) SO 136 0 min 42 W/m 19,1 C 19,9 C 4,8 km/h (1 Bft)
15.08.2015 09:30 19,9 C 95 % 1005,3 hPa 0,0 l/m 2,8 km/h (1 Bft) O-SO 113 0 min 44 W/m 19,1 C 19,9 C 4,8 km/h (1 Bft)
15.08.2015 09:33 19,9 C 95 % 1005,4 hPa 0,0 l/m 1,0 km/h (0 Bft) O-SO 113 0 min 42 W/m 19,1 C 19,9 C 3,2 km/h (1 Bft)
15.08.2015 09:36 19,8 C 95 % 1005,5 hPa 0,0 l/m 3,0 km/h (1 Bft) S 186 0 min 39 W/m 19,0 C 19,8 C 6,4 km/h (2 Bft)
15.08.2015 09:39 19,8 C 95 % 1005,6 hPa 0,0 l/m 1,3 km/h (1 Bft) S 182 0 min 35 W/m 19,0 C 19,8 C 4,8 km/h (1 Bft)
15.08.2015 09:42 19,8 C 95 % 1005,6 hPa 0,0 l/m 0,9 km/h (0 Bft) S 182 0 min 35 W/m 19,0 C 19,8 C 3,2 km/h (1 Bft)
15.08.2015 09:45 19,8 C 95 % 1005,6 hPa 0,0 l/m 2,6 km/h (1 Bft) SO 131 0 min 33 W/m 19,0 C 19,8 C 4,8 km/h (1 Bft)
15.08.2015 09:48 19,8 C 95 % 1005,7 hPa 0,2 l/m 3,2 km/h (1 Bft) SO 146 0 min 32 W/m 19,0 C 19,8 C 6,4 km/h (2 Bft)
15.08.2015 09:51 19,8 C 95 % 1005,6 hPa 0,2 l/m 2,5 km/h (1 Bft) SO 139 0 min 32 W/m 19,0 C 19,8 C 4,8 km/h (1 Bft)
15.08.2015 09:54 19,7 C 95 % 1005,7 hPa 0,0 l/m 4,6 km/h (1 Bft) SO 146 0 min 35 W/m 18,9 C 19,7 C 8,0 km/h (2 Bft)
15.08.2015 09:57 19,7 C 95 % 1005,8 hPa 0,0 l/m 3,5 km/h (1 Bft) SO 128 0 min 37 W/m 18,9 C 19,7 C 6,4 km/h (2 Bft)
15.08.2015 10:00 19,7 C 95 % 1005,9 hPa 0,0 l/m 3,8 km/h (1 Bft) S-SO 148 0 min 35 W/m 18,9 C 19,7 C 8,0 km/h (2 Bft)
15.08.2015 10:03 19,7 C 95 % 1005,8 hPa 0,0 l/m 4,0 km/h (1 Bft) SO 132 0 min 32 W/m 18,9 C 19,7 C 6,4 km/h (2 Bft)
15.08.2015 10:06 19,7 C 95 % 1005,8 hPa 0,2 l/m 3,7 km/h (1 Bft) S-SO 150 0 min 30 W/m 18,9 C 19,7 C 8,0 km/h (2 Bft)
15.08.2015 10:09 19,7 C 95 % 1005,8 hPa 0,0 l/m 2,1 km/h (1 Bft) SO 139 0 min 28 W/m 18,9 C 19,7 C 4,8 km/h (1 Bft)
15.08.2015 10:12 19,6 C 96 % 1005,8 hPa 0,0 l/m 2,5 km/h (1 Bft) S-SO 150 0 min 28 W/m 18,9 C 19,6 C 4,8 km/h (1 Bft)
15.08.2015 10:15 19,6 C 96 % 1005,8 hPa 0,2 l/m 3,0 km/h (1 Bft) SO 125 0 min 28 W/m 18,9 C 19,6 C 6,4 km/h (2 Bft)
15.08.2015 10:18 19,6 C 96 % 1005,9 hPa 0,0 l/m 3,2 km/h (1 Bft) O-SO 113 0 min 28 W/m 18,9 C 19,6 C 6,4 km/h (2 Bft)
15.08.2015 10:21 19,6 C 96 % 1005,9 hPa 0,0 l/m 1,7 km/h (1 Bft) S-SO 150 0 min 32 W/m 18,9 C 19,6 C 4,8 km/h (1 Bft)
15.08.2015 10:24 19,7 C 96 % 1005,8 hPa 0,0 l/m 1,7 km/h (1 Bft) S-SO 150 0 min 33 W/m 19,0 C 19,7 C 3,2 km/h (1 Bft)
15.08.2015 10:27 19,7 C 96 % 1005,8 hPa 0,0 l/m 1,2 km/h (1 Bft) S-SO 150 0 min 40 W/m 19,0 C 19,7 C 3,2 km/h (1 Bft)
15.08.2015 10:30 19,7 C 96 % 1005,7 hPa 0,0 l/m 0,1 km/h (0 Bft) S-SO 150 0 min 47 W/m 19,0 C 19,7 C 1,6 km/h (1 Bft)
15.08.2015 10:33 19,7 C 96 % 1005,7 hPa 0,2 l/m 1,2 km/h (1 Bft) S-SO 150 0 min 49 W/m 19,0 C 19,7 C 3,2 km/h (1 Bft)
15.08.2015 10:36 19,7 C 96 % 1005,8 hPa 0,0 l/m 0,7 km/h (0 Bft) S-SO 150 0 min 54 W/m 19,0 C 19,7 C 1,6 km/h (1 Bft)
15.08.2015 10:39 19,7 C 96 % 1005,8 hPa 0,0 l/m 1,8 km/h (1 Bft) SO 146 0 min 63 W/m 19,0 C 19,7 C 4,8 km/h (1 Bft)
15.08.2015 10:42 19,8 C 96 % 1005,8 hPa 0,0 l/m 1,7 km/h (1 Bft) SO 146 0 min 77 W/m 19,1 C 19,8 C 3,2 km/h (1 Bft)
15.08.2015 10:45 19,8 C 96 % 1005,8 hPa 0,0 l/m 1,4 km/h (1 Bft) SO 129 0 min 91 W/m 19,1 C 19,8 C 3,2 km/h (1 Bft)
15.08.2015 10:48 19,8 C 97 % 1005,8 hPa 0,0 l/m 1,2 km/h (1 Bft) SO 128 0 min 102 W/m 19,3 C 19,8 C 4,8 km/h (1 Bft)
15.08.2015 10:51 19,9 C 97 % 1005,9 hPa 0,2 l/m 1,6 km/h (1 Bft) SO 124 0 min 116 W/m 19,4 C 19,9 C 3,2 km/h (1 Bft)
15.08.2015 10:54 20,0 C 97 % 1005,9 hPa 0,0 l/m 1,7 km/h (1 Bft) SO 126 0 min 151 W/m 19,5 C 20,0 C 4,8 km/h (1 Bft)
15.08.2015 10:57 20,1 C 97 % 1006,0 hPa 0,0 l/m 2,5 km/h (1 Bft) SO 134 0 min 183 W/m 19,6 C 20,1 C 4,8 km/h (1 Bft)
15.08.2015 11:00 20,3 C 97 % 1006,0 hPa 0,0 l/m 3,3 km/h (1 Bft) S-SO 154 0 min 230 W/m 19,8 C 20,3 C 6,4 km/h (2 Bft)
15.08.2015 11:03 20,5 C 97 % 1006,1 hPa 0,0 l/m 3,5 km/h (1 Bft) S-SO 164 0 min 250 W/m 20,0 C 20,5 C 6,4 km/h (2 Bft)
15.08.2015 11:06 20,7 C 97 % 1006,2 hPa 0,0 l/m 4,3 km/h (1 Bft) S-SO 162 0 min 253 W/m 20,2 C 20,7 C 8,0 km/h (2 Bft)
15.08.2015 11:09 20,7 C 97 % 1006,0 hPa 0,0 l/m 3,2 km/h (1 Bft) S-SO 168 0 min 230 W/m 20,2 C 20,7 C 8,0 km/h (2 Bft)
15.08.2015 11:12 20,9 C 97 % 1006,1 hPa 0,0 l/m 3,0 km/h (1 Bft) S 174 0 min 207 W/m 20,4 C 20,9 C 6,4 km/h (2 Bft)
15.08.2015 11:15 21,1 C 97 % 1006,1 hPa 0,0 l/m 3,4 km/h (1 Bft) S-SO 167 0 min 206 W/m 20,6 C 21,1 C 8,0 km/h (2 Bft)
15.08.2015 11:18 21,1 C 96 % 1006,1 hPa 0,0 l/m 4,1 km/h (1 Bft) S-SO 155 0 min 195 W/m 20,4 C 21,1 C 6,4 km/h (2 Bft)
15.08.2015 11:21 21,2 C 96 % 1006,2 hPa 0,0 l/m 3,7 km/h (1 Bft) S 184 0 min 183 W/m 20,5 C 21,2 C 8,0 km/h (2 Bft)
15.08.2015 11:24 21,2 C 96 % 1006,1 hPa 0,0 l/m 3,5 km/h (1 Bft) S 171 0 min 185 W/m 20,5 C 21,2 C 8,0 km/h (2 Bft)
15.08.2015 11:27 21,2 C 95 % 1006,1 hPa 0,0 l/m 2,3 km/h (1 Bft) S 172 0 min 186 W/m 20,4 C 21,2 C 4,8 km/h (1 Bft)
15.08.2015 11:30 21,4 C 96 % 1006,2 hPa 0,0 l/m 4,1 km/h (1 Bft) S-SO 164 0 min 178 W/m 20,7 C 21,4 C 8,0 km/h (2 Bft)
15.08.2015 11:33 21,4 C 95 % 1006,2 hPa 0,0 l/m 2,5 km/h (1 Bft) SO 124 0 min 169 W/m 20,6 C 21,4 C 4,8 km/h (1 Bft)
15.08.2015 11:36 21,6 C 95 % 1006,2 hPa 0,0 l/m 3,4 km/h (1 Bft) S 177 0 min 178 W/m 20,8 C 21,6 C 8,0 km/h (2 Bft)
15.08.2015 11:39 21,6 C 94 % 1006,2 hPa 0,0 l/m 4,3 km/h (1 Bft) S-SO 148 0 min 185 W/m 20,6 C 21,6 C 8,0 km/h (2 Bft)
15.08.2015 11:42 21,6 C 95 % 1006,2 hPa 0,0 l/m 4,1 km/h (1 Bft) S-SO 151 0 min 188 W/m 20,8 C 21,6 C 8,0 km/h (2 Bft)
15.08.2015 11:45 21,6 C 95 % 1006,3 hPa 0,0 l/m 3,7 km/h (1 Bft) S 176 0 min 181 W/m 20,8 C 21,6 C 8,0 km/h (2 Bft)
15.08.2015 11:48 21,6 C 95 % 1006,3 hPa 0,0 l/m 4,8 km/h (1 Bft) S 184 0 min 176 W/m 20,8 C 21,6 C 8,0 km/h (2 Bft)
15.08.2015 11:51 21,7 C 95 % 1006,3 hPa 0,0 l/m 3,5 km/h (1 Bft) S-SO 148 0 min 174 W/m 20,9 C 21,7 C 9,7 km/h (2 Bft)
15.08.2015 11:54 21,8 C 95 % 1006,2 hPa 0,0 l/m 2,0 km/h (1 Bft) SO 127 0 min 171 W/m 21,0 C 21,8 C 3,2 km/h (1 Bft)
15.08.2015 11:57 21,7 C 94 % 1006,2 hPa 0,0 l/m 3,2 km/h (1 Bft) S-SO 156 0 min 188 W/m 20,7 C 21,7 C 8,0 km/h (2 Bft)
15.08.2015 12:00 21,8 C 94 % 1006,2 hPa 0,0 l/m 4,2 km/h (1 Bft) S 169 0 min 202 W/m 20,8 C 21,8 C 6,4 km/h (2 Bft)
15.08.2015 12:03 21,8 C 94 % 1006,3 hPa 0,0 l/m 3,0 km/h (1 Bft) S 175 0 min 200 W/m 20,8 C 21,8 C 6,4 km/h (2 Bft)
15.08.2015 12:06 21,9 C 94 % 1006,2 hPa 0,0 l/m 3,0 km/h (1 Bft) S-SO 167 0 min 197 W/m 20,9 C 21,9 C 6,4 km/h (2 Bft)
15.08.2015 12:09 21,9 C 94 % 1006,2 hPa 0,0 l/m 2,6 km/h (1 Bft) S 170 0 min 202 W/m 20,9 C 21,9 C 6,4 km/h (2 Bft)
15.08.2015 12:12 22,0 C 94 % 1006,2 hPa 0,0 l/m 2,9 km/h (1 Bft) S 182 0 min 221 W/m 21,0 C 22,0 C 8,0 km/h (2 Bft)
15.08.2015 12:15 22,2 C 94 % 1006,2 hPa 0,0 l/m 2,6 km/h (1 Bft) S 175 0 min 221 W/m 21,2 C 22,2 C 6,4 km/h (2 Bft)
15.08.2015 12:18 22,2 C 92 % 1006,2 hPa 0,0 l/m 3,5 km/h (1 Bft) S 170 0 min 216 W/m 20,8 C 22,2 C 8,0 km/h (2 Bft)
15.08.2015 12:21 22,3 C 93 % 1006,2 hPa 0,0 l/m 2,6 km/h (1 Bft) S 169 0 min 216 W/m 21,1 C 22,3 C 6,4 km/h (2 Bft)
15.08.2015 12:24 22,4 C 93 % 1006,2 hPa 0,0 l/m 4,1 km/h (1 Bft) S-SO 162 0 min 223 W/m 21,2 C 22,4 C 6,4 km/h (2 Bft)
15.08.2015 12:27 22,5 C 92 % 1006,2 hPa 0,0 l/m 2,5 km/h (1 Bft) S-SO 158 0 min 246 W/m 21,1 C 22,5 C 6,4 km/h (2 Bft)
15.08.2015 12:30 22,6 C 92 % 1006,2 hPa 0,0 l/m 2,3 km/h (1 Bft) S-SW 202 0 min 308 W/m 21,2 C 22,6 C 6,4 km/h (2 Bft)
15.08.2015 12:33 22,8 C 92 % 1006,2 hPa 0,0 l/m 2,4 km/h (1 Bft) S 188 0 min 297 W/m 21,4 C 22,8 C 4,8 km/h (1 Bft)
15.08.2015 12:36 23,1 C 92 % 1006,1 hPa 0,0 l/m 3,0 km/h (1 Bft) O-SO 117 0 min 315 W/m 21,7 C 23,1 C 6,4 km/h (2 Bft)
15.08.2015 12:39 23,2 C 90 % 1006,1 hPa 0,0 l/m 3,1 km/h (1 Bft) S 189 0 min 387 W/m 21,5 C 23,2 C 6,4 km/h (2 Bft)
15.08.2015 12:42 23,3 C 88 % 1006,1 hPa 0,0 l/m 3,4 km/h (1 Bft) S-SW 193 3 min 404 W/m 21,2 C 23,3 C 6,4 km/h (2 Bft)
15.08.2015 12:45 23,5 C 87 % 1006,1 hPa 0,0 l/m 4,5 km/h (1 Bft) S-SO 161 0 min 353 W/m 21,2 C 23,5 C 8,0 km/h (2 Bft)
15.08.2015 12:48 23,4 C 87 % 1006,1 hPa 0,0 l/m 4,1 km/h (1 Bft) S-SO 165 0 min 364 W/m 21,1 C 23,4 C 8,0 km/h (2 Bft)
15.08.2015 12:51 23,5 C 86 % 1006,0 hPa 0,0 l/m 4,8 km/h (1 Bft) O-SO 104 0 min 396 W/m 21,0 C 23,5 C 9,7 km/h (2 Bft)
15.08.2015 12:54 23,6 C 88 % 1006,0 hPa 0,0 l/m 4,6 km/h (1 Bft) SO 140 3 min 417 W/m 21,5 C 23,6 C 9,7 km/h (2 Bft)
15.08.2015 12:57 23,7 C 86 % 1006,0 hPa 0,0 l/m 5,4 km/h (2 Bft) S 177 3 min 446 W/m 21,2 C 23,7 C 9,7 km/h (2 Bft)
15.08.2015 13:00 23,8 C 86 % 1006,0 hPa 0,0 l/m 3,7 km/h (1 Bft) SO 134 3 min 434 W/m 21,3 C 23,8 C 9,7 km/h (2 Bft)
15.08.2015 13:03 23,9 C 82 % 1006,0 hPa 0,0 l/m 5,3 km/h (1 Bft) S-SO 165 3 min 462 W/m 20,6 C 23,9 C 9,7 km/h (2 Bft)
15.08.2015 13:06 24,2 C 85 % 1005,9 hPa 0,0 l/m 3,0 km/h (1 Bft) S-SW 200 3 min 643 W/m 21,5 C 24,2 C 6,4 km/h (2 Bft)
15.08.2015 13:09 24,5 C 81 % 1005,9 hPa 0,0 l/m 3,8 km/h (1 Bft) S-SW 200 3 min 545 W/m 21,0 C 24,5 C 4,8 km/h (1 Bft)
15.08.2015 13:12 24,6 C 82 % 1006,0 hPa 0,0 l/m 3,5 km/h (1 Bft) SW 221 3 min 780 W/m 21,3 C 24,6 C 6,4 km/h (2 Bft)
15.08.2015 13:15 24,8 C 78 % 1006,0 hPa 0,0 l/m 3,9 km/h (1 Bft) SW 233 3 min 722 W/m 20,7 C 24,8 C 8,0 km/h (2 Bft)
15.08.2015 13:18 25,0 C 78 % 1006,0 hPa 0,0 l/m 4,2 km/h (1 Bft) S 173 3 min 766 W/m 20,9 C 25,0 C 8,0 km/h (2 Bft)
15.08.2015 13:21 25,2 C 78 % 1006,1 hPa 0,0 l/m 5,7 km/h (2 Bft) S-SW 196 3 min 735 W/m 21,1 C 25,2 C 9,7 km/h (2 Bft)
15.08.2015 13:24 25,3 C 78 % 1006,1 hPa 0,0 l/m 3,0 km/h (1 Bft) S-SW 202 3 min 773 W/m 21,2 C 25,3 C 6,4 km/h (2 Bft)
15.08.2015 13:27 25,4 C 75 % 1006,0 hPa 0,0 l/m 2,2 km/h (1 Bft) S-SW 198 3 min 773 W/m 20,6 C 25,4 C 4,8 km/h (1 Bft)
15.08.2015 13:30 25,7 C 82 % 1006,0 hPa 0,0 l/m 2,8 km/h (1 Bft) S 186 3 min 856 W/m 22,4 C 25,7 C 6,4 km/h (2 Bft)
15.08.2015 13:33 26,1 C 74 % 1006,0 hPa 0,0 l/m 3,2 km/h (1 Bft) S-SO 167 3 min 798 W/m 21,1 C 26,1 C 4,8 km/h (1 Bft)
15.08.2015 13:36 26,1 C 75 % 1006,0 hPa 0,0 l/m 2,2 km/h (1 Bft) NW 310 3 min 812 W/m 21,3 C 26,1 C 8,0 km/h (2 Bft)
15.08.2015 13:39 26,1 C 77 % 1006,1 hPa 0,0 l/m 4,0 km/h (1 Bft) N-NW 342 3 min 728 W/m 21,7 C 26,1 C 8,0 km/h (2 Bft)
15.08.2015 13:42 25,6 C 78 % 1006,1 hPa 0,0 l/m 6,6 km/h (2 Bft) W-NW 301 3 min 731 W/m 21,5 C 25,6 C 14,5 km/h (3 Bft)
15.08.2015 13:45 24,9 C 80 % 1006,1 hPa 0,0 l/m 5,8 km/h (2 Bft) NW 326 0 min 179 W/m 21,2 C 24,9 C 11,3 km/h (2 Bft)
15.08.2015 13:48 24,5 C 82 % 1006,1 hPa 0,0 l/m 4,6 km/h (1 Bft) N 350 0 min 163 W/m 21,2 C 24,5 C 8,0 km/h (2 Bft)
15.08.2015 13:51 24,1 C 82 % 1006,1 hPa 0,0 l/m 6,0 km/h (2 Bft) N-NW 329 0 min 137 W/m 20,8 C 24,1 C 9,7 km/h (2 Bft)
15.08.2015 13:54 23,8 C 84 % 1006,1 hPa 0,0 l/m 5,9 km/h (2 Bft) N-NW 338 0 min 113 W/m 20,9 C 23,8 C 8,0 km/h (2 Bft)
15.08.2015 13:57 23,7 C 84 % 1006,2 hPa 0,0 l/m 2,8 km/h (1 Bft) N-NW 333 0 min 84 W/m 20,8 C 23,7 C 8,0 km/h (2 Bft)
15.08.2015 14:00 23,6 C 85 % 1006,3 hPa 0,0 l/m 2,9 km/h (1 Bft) W-NW 300 0 min 105 W/m 20,9 C 23,6 C 6,4 km/h (2 Bft)
15.08.2015 14:03 23,4 C 85 % 1006,4 hPa 0,0 l/m 4,3 km/h (1 Bft) W 277 0 min 102 W/m 20,7 C 23,4 C 6,4 km/h (2 Bft)
15.08.2015 14:06 23,4 C 86 % 1006,5 hPa 0,0 l/m 1,7 km/h (1 Bft) W 277 0 min 93 W/m 20,9 C 23,4 C 4,8 km/h (1 Bft)
15.08.2015 14:09 23,3 C 87 % 1006,5 hPa 0,0 l/m 3,4 km/h (1 Bft) W 279 0 min 77 W/m 21,0 C 23,3 C 4,8 km/h (1 Bft)
15.08.2015 14:12 23,2 C 86 % 1006,6 hPa 0,0 l/m 2,7 km/h (1 Bft) W 272 0 min 65 W/m 20,7 C 23,2 C 4,8 km/h (1 Bft)
15.08.2015 14:15 23,1 C 86 % 1006,6 hPa 0,0 l/m 2,5 km/h (1 Bft) W 277 0 min 53 W/m 20,6 C 23,1 C 4,8 km/h (1 Bft)
15.08.2015 14:18 23,1 C 86 % 1006,7 hPa 0,0 l/m 3,3 km/h (1 Bft) W-NW 285 0 min 49 W/m 20,6 C 23,1 C 4,8 km/h (1 Bft)
15.08.2015 14:21 22,9 C 87 % 1006,6 hPa 0,0 l/m 2,6 km/h (1 Bft) NW 309 0 min 65 W/m 20,6 C 22,9 C 6,4 km/h (2 Bft)
15.08.2015 14:24 23,0 C 87 % 1006,7 hPa 0,0 l/m 3,0 km/h (1 Bft) W 276 0 min 76 W/m 20,7 C 23,0 C 6,4 km/h (2 Bft)
15.08.2015 14:27 23,1 C 87 % 1006,7 hPa 0,0 l/m 3,1 km/h (1 Bft) W 277 0 min 86 W/m 20,8 C 23,1 C 6,4 km/h (2 Bft)
15.08.2015 14:30 23,0 C 85 % 1006,6 hPa 0,0 l/m 2,8 km/h (1 Bft) W-NW 286 0 min 90 W/m 20,3 C 23,0 C 4,8 km/h (1 Bft)
15.08.2015 14:33 23,0 C 85 % 1006,6 hPa 0,0 l/m 3,4 km/h (1 Bft) W-SW 256 0 min 83 W/m 20,3 C 23,0 C 6,4 km/h (2 Bft)
15.08.2015 14:36 22,9 C 85 % 1006,6 hPa 0,0 l/m 3,9 km/h (1 Bft) W 273 0 min 81 W/m 20,2 C 22,9 C 6,4 km/h (2 Bft)
15.08.2015 14:39 22,8 C 87 % 1006,7 hPa 0,0 l/m 2,3 km/h (1 Bft) W 266 0 min 88 W/m 20,5 C 22,8 C 6,4 km/h (2 Bft)
15.08.2015 14:42 22,7 C 89 % 1006,7 hPa 0,0 l/m 1,6 km/h (1 Bft) W 281 0 min 93 W/m 20,8 C 22,7 C 3,2 km/h (1 Bft)
15.08.2015 14:45 22,5 C 90 % 1006,7 hPa 0,0 l/m 3,2 km/h (1 Bft) W-NW 291 0 min 84 W/m 20,8 C 22,5 C 6,4 km/h (2 Bft)
15.08.2015 14:48 22,4 C 90 % 1006,7 hPa 0,0 l/m 1,9 km/h (1 Bft) W-NW 291 0 min 76 W/m 20,7 C 22,4 C 3,2 km/h (1 Bft)
15.08.2015 14:51 22,3 C 90 % 1006,7 hPa 0,0 l/m 3,1 km/h (1 Bft) N-NW 342 0 min 76 W/m 20,6 C 22,3 C 8,0 km/h (2 Bft)
15.08.2015 14:54 22,2 C 91 % 1006,7 hPa 0,0 l/m 3,0 km/h (1 Bft) N-NW 335 0 min 72 W/m 20,7 C 22,2 C 6,4 km/h (2 Bft)
15.08.2015 14:57 22,1 C 91 % 1006,8 hPa 0,2 l/m 2,3 km/h (1 Bft) NW 324 0 min 76 W/m 20,6 C 22,1 C 4,8 km/h (1 Bft)
15.08.2015 15:00 22,0 C 92 % 1006,7 hPa 0,0 l/m 1,9 km/h (1 Bft) NW 324 0 min 95 W/m 20,6 C 22,0 C 3,2 km/h (1 Bft)
15.08.2015 15:03 22,0 C 92 % 1006,7 hPa 0,0 l/m 2,5 km/h (1 Bft) NW 324 0 min 107 W/m 20,6 C 22,0 C 4,8 km/h (1 Bft)
15.08.2015 15:06 22,0 C 92 % 1006,8 hPa 0,0 l/m 2,6 km/h (1 Bft) NW 320 0 min 105 W/m 20,6 C 22,0 C 4,8 km/h (1 Bft)
15.08.2015 15:09 22,2 C 92 % 1006,8 hPa 0,0 l/m 2,1 km/h (1 Bft) NW 320 0 min 83 W/m 20,8 C 22,2 C 4,8 km/h (1 Bft)
15.08.2015 15:12 22,2 C 91 % 1006,9 hPa 0,0 l/m 2,1 km/h (1 Bft) NW 320 0 min 67 W/m 20,7 C 22,2 C 3,2 km/h (1 Bft)
15.08.2015 15:15 22,2 C 91 % 1006,9 hPa 0,0 l/m 1,9 km/h (1 Bft) NW 320 0 min 65 W/m 20,7 C 22,2 C 4,8 km/h (1 Bft)
15.08.2015 15:18 22,2 C 91 % 1006,9 hPa 0,0 l/m 2,0 km/h (1 Bft) NW 319 0 min 69 W/m 20,7 C 22,2 C 3,2 km/h (1 Bft)
15.08.2015 15:21 22,1 C 92 % 1006,9 hPa 0,0 l/m 2,3 km/h (1 Bft) NW 319 0 min 67 W/m 20,7 C 22,1 C 4,8 km/h (1 Bft)
15.08.2015 15:24 22,1 C 92 % 1007,0 hPa 0,0 l/m 3,9 km/h (1 Bft) W-NW 298 0 min 58 W/m 20,7 C 22,1 C 6,4 km/h (2 Bft)
15.08.2015 15:27 22,1 C 92 % 1007,1 hPa 0,0 l/m 2,2 km/h (1 Bft) W 281 0 min 62 W/m 20,7 C 22,1 C 4,8 km/h (1 Bft)
15.08.2015 15:30 22,1 C 91 % 1007,0 hPa 0,0 l/m 2,6 km/h (1 Bft) W 277 0 min 70 W/m 20,6 C 22,1 C 6,4 km/h (2 Bft)
15.08.2015 15:33 22,1 C 91 % 1007,1 hPa 0,0 l/m 2,5 km/h (1 Bft) W 277 0 min 76 W/m 20,6 C 22,1 C 4,8 km/h (1 Bft)
15.08.2015 15:36 22,1 C 91 % 1007,0 hPa 0,0 l/m 3,4 km/h (1 Bft) W 270 0 min 86 W/m 20,6 C 22,1 C 6,4 km/h (2 Bft)
15.08.2015 15:39 22,1 C 91 % 1007,0 hPa 0,0 l/m 6,9 km/h (2 Bft) W 275 0 min 111 W/m 20,6 C 21,9 C 12,9 km/h (3 Bft)
15.08.2015 15:42 22,1 C 91 % 1007,0 hPa 0,0 l/m 3,6 km/h (1 Bft) W-SW 249 0 min 148 W/m 20,6 C 22,1 C 9,7 km/h (2 Bft)
15.08.2015 15:45 22,1 C 91 % 1007,2 hPa 0,0 l/m 7,1 km/h (2 Bft) W 272 0 min 162 W/m 20,6 C 21,9 C 12,9 km/h (3 Bft)
15.08.2015 15:48 22,0 C 91 % 1007,3 hPa 0,0 l/m 8,6 km/h (2 Bft) W 275 0 min 167 W/m 20,5 C 21,3 C 16,1 km/h (3 Bft)
15.08.2015 15:51 21,8 C 92 % 1007,4 hPa 0,0 l/m 8,2 km/h (2 Bft) W-SW 248 0 min 179 W/m 20,4 C 21,2 C 14,5 km/h (3 Bft)
15.08.2015 15:54 21,7 C 92 % 1007,5 hPa 0,0 l/m 8,8 km/h (2 Bft) W 270 0 min 185 W/m 20,3 C 20,9 C 16,1 km/h (3 Bft)
15.08.2015 15:57 21,7 C 92 % 1007,5 hPa 0,0 l/m 7,1 km/h (2 Bft) W 265 0 min 183 W/m 20,3 C 21,5 C 17,7 km/h (3 Bft)
15.08.2015 16:00 21,7 C 92 % 1007,5 hPa 0,0 l/m 5,2 km/h (1 Bft) W-NW 297 0 min 183 W/m 20,3 C 21,7 C 14,5 km/h (3 Bft)
15.08.2015 16:03 21,7 C 93 % 1007,5 hPa 0,0 l/m 4,9 km/h (1 Bft) W 273 0 min 174 W/m 20,5 C 21,7 C 11,3 km/h (2 Bft)
15.08.2015 16:06 21,8 C 93 % 1007,4 hPa 0,0 l/m 5,1 km/h (1 Bft) NW 318 0 min 239 W/m 20,6 C 21,8 C 11,3 km/h (2 Bft)
15.08.2015 16:09 21,9 C 93 % 1007,4 hPa 0,0 l/m 5,9 km/h (2 Bft) NW 323 0 min 243 W/m 20,7 C 21,9 C 14,5 km/h (3 Bft)
15.08.2015 16:12 22,0 C 92 % 1007,3 hPa 0,0 l/m 5,3 km/h (1 Bft) N-NW 327 0 min 190 W/m 20,6 C 22,0 C 9,7 km/h (2 Bft)
15.08.2015 16:15 21,9 C 91 % 1007,4 hPa 0,0 l/m 6,3 km/h (2 Bft) NW 325 0 min 146 W/m 20,4 C 21,9 C 12,9 km/h (3 Bft)
15.08.2015 16:18 21,9 C 92 % 1007,4 hPa 0,0 l/m 4,5 km/h (1 Bft) W-NW 282 0 min 141 W/m 20,5 C 21,9 C 12,9 km/h (3 Bft)
15.08.2015 16:21 21,9 C 92 % 1007,5 hPa 0,0 l/m 4,5 km/h (1 Bft) NW 315 0 min 135 W/m 20,5 C 21,9 C 11,3 km/h (2 Bft)
15.08.2015 16:24 21,8 C 92 % 1007,5 hPa 0,0 l/m 5,1 km/h (1 Bft) N-NW 333 0 min 105 W/m 20,4 C 21,8 C 12,9 km/h (3 Bft)
15.08.2015 16:27 21,7 C 92 % 1007,5 hPa 0,0 l/m 6,3 km/h (2 Bft) NW 320 0 min 90 W/m 20,3 C 21,7 C 12,9 km/h (3 Bft)
15.08.2015 16:30 21,6 C 92 % 1007,4 hPa 0,0 l/m 6,3 km/h (2 Bft) NW 312 0 min 74 W/m 20,2 C 21,6 C 12,9 km/h (3 Bft)
15.08.2015 16:33 21,5 C 92 % 1007,4 hPa 0,0 l/m 5,6 km/h (2 Bft) N 5 0 min 67 W/m 20,1 C 21,5 C 11,3 km/h (2 Bft)
15.08.2015 16:36 21,4 C 92 % 1007,5 hPa 0,0 l/m 6,8 km/h (2 Bft) N 355 0 min 65 W/m 20,0 C 21,3 C 12,9 km/h (3 Bft)
15.08.2015 16:39 21,3 C 92 % 1007,4 hPa 0,0 l/m 7,3 km/h (2 Bft) NW 324 0 min 72 W/m 19,9 C 21,0 C 12,9 km/h (3 Bft)
15.08.2015 16:42 21,3 C 93 % 1007,3 hPa 0,0 l/m 4,0 km/h (1 Bft) W-NW 295 0 min 67 W/m 20,1 C 21,3 C 8,0 km/h (2 Bft)
15.08.2015 16:45 21,3 C 93 % 1007,4 hPa 0,0 l/m 6,0 km/h (2 Bft) W-NW 295 0 min 47 W/m 20,1 C 21,3 C 9,7 km/h (2 Bft)
15.08.2015 16:48 21,2 C 93 % 1007,5 hPa 0,0 l/m 5,8 km/h (2 Bft) W-NW 294 0 min 32 W/m 20,0 C 21,2 C 9,7 km/h (2 Bft)
15.08.2015 16:51 21,2 C 93 % 1007,5 hPa 0,0 l/m 5,9 km/h (2 Bft) W-NW 303 0 min 19 W/m 20,0 C 21,2 C 11,3 km/h (2 Bft)
15.08.2015 16:54 21,2 C 93 % 1007,5 hPa 0,0 l/m 3,4 km/h (1 Bft) N-NW 329 0 min 12 W/m 20,0 C 21,2 C 14,5 km/h (3 Bft)
15.08.2015 16:57 21,1 C 93 % 1007,5 hPa 0,0 l/m 5,2 km/h (1 Bft) N-NW 348 0 min 7 W/m 19,9 C 21,1 C 9,7 km/h (2 Bft)
15.08.2015 17:00 21,0 C 93 % 1007,5 hPa 0,0 l/m 6,4 km/h (2 Bft) W-SW 254 0 min 5 W/m 19,8 C 21,0 C 9,7 km/h (2 Bft)
15.08.2015 17:03 20,9 C 93 % 1007,7 hPa 0,0 l/m 5,1 km/h (1 Bft) W-SW 237 0 min 0 W/m 19,7 C 20,9 C 12,9 km/h (3 Bft)
15.08.2015 17:06 20,9 C 93 % 1007,9 hPa 0,0 l/m 7,9 km/h (2 Bft) S-SW 192 0 min 0 W/m 19,7 C 20,3 C 12,9 km/h (3 Bft)
15.08.2015 17:09 20,8 C 94 % 1008,0 hPa 2,2 l/m 12,6 km/h (3 Bft) S-SW 213 0 min 0 W/m 19,8 C 18,8 C 20,9 km/h (4 Bft)
15.08.2015 17:12 20,6 C 93 % 1008,1 hPa 4,6 l/m 13,9 km/h (3 Bft) SW 222 0 min 18 W/m 19,4 C 18,2 C 22,5 km/h (4 Bft)
15.08.2015 17:15 20,1 C 93 % 1008,0 hPa 4,2 l/m 9,2 km/h (2 Bft) S 188 0 min 33 W/m 18,9 C 19,0 C 14,5 km/h (3 Bft)
15.08.2015 17:18 19,8 C 94 % 1008,0 hPa 2,8 l/m 3,5 km/h (1 Bft) O-SO 111 0 min 49 W/m 18,8 C 19,8 C 6,4 km/h (2 Bft)
15.08.2015 17:21 19,7 C 95 % 1008,1 hPa 1,6 l/m 3,5 km/h (1 Bft) W-NW 289 0 min 49 W/m 18,9 C 19,7 C 11,3 km/h (2 Bft)
15.08.2015 17:24 19,7 C 95 % 1008,1 hPa 0,2 l/m 7,3 km/h (2 Bft) W-NW 295 0 min 44 W/m 18,9 C 19,3 C 12,9 km/h (3 Bft)
15.08.2015 17:27 19,6 C 96 % 1007,8 hPa 0,2 l/m 4,5 km/h (1 Bft) N 5 0 min 104 W/m 18,9 C 19,6 C 11,3 km/h (2 Bft)
15.08.2015 17:30 19,7 C 96 % 1007,6 hPa 0,0 l/m 6,1 km/h (2 Bft) N 11 0 min 118 W/m 19,0 C 19,7 C 9,7 km/h (2 Bft)
15.08.2015 17:33 19,8 C 96 % 1007,5 hPa 0,0 l/m 6,0 km/h (2 Bft) NW 311 0 min 111 W/m 19,1 C 19,8 C 16,1 km/h (3 Bft)
15.08.2015 17:36 19,9 C 97 % 1007,6 hPa 0,0 l/m 3,3 km/h (1 Bft) NW 326 0 min 120 W/m 19,4 C 19,9 C 6,4 km/h (2 Bft)
15.08.2015 17:39 19,9 C 97 % 1007,6 hPa 0,0 l/m 2,3 km/h (1 Bft) N 349 0 min 107 W/m 19,4 C 19,9 C 4,8 km/h (1 Bft)
15.08.2015 17:42 20,1 C 97 % 1007,6 hPa 0,0 l/m 4,7 km/h (1 Bft) NW 318 0 min 90 W/m 19,6 C 20,1 C 8,0 km/h (2 Bft)
15.08.2015 17:45 20,1 C 97 % 1007,6 hPa 0,0 l/m 3,9 km/h (1 Bft) N-NW 339 0 min 65 W/m 19,6 C 20,1 C 8,0 km/h (2 Bft)
15.08.2015 17:48 20,1 C 97 % 1007,6 hPa 0,0 l/m 6,0 km/h (2 Bft) NW 318 0 min 60 W/m 19,6 C 20,1 C 11,3 km/h (2 Bft)
15.08.2015 17:51 20,1 C 97 % 1007,6 hPa 0,0 l/m 5,7 km/h (2 Bft) NW 316 0 min 54 W/m 19,6 C 20,1 C 9,7 km/h (2 Bft)
15.08.2015 17:54 20,1 C 97 % 1007,6 hPa 0,0 l/m 3,4 km/h (1 Bft) W 272 0 min 54 W/m 19,6 C 20,1 C 9,7 km/h (2 Bft)
15.08.2015 17:57 20,1 C 97 % 1007,6 hPa 0,0 l/m 3,7 km/h (1 Bft) W 259 0 min 62 W/m 19,6 C 20,1 C 9,7 km/h (2 Bft)
15.08.2015 18:00 20,1 C 97 % 1007,6 hPa 0,0 l/m 3,1 km/h (1 Bft) W-NW 299 0 min 65 W/m 19,6 C 20,1 C 6,4 km/h (2 Bft)
15.08.2015 18:03 20,2 C 97 % 1007,6 hPa 0,0 l/m 3,5 km/h (1 Bft) W-NW 294 0 min 65 W/m 19,7 C 20,2 C 6,4 km/h (2 Bft)
15.08.2015 18:06 20,3 C 97 % 1007,6 hPa 0,0 l/m 3,2 km/h (1 Bft) NW 325 0 min 63 W/m 19,8 C 20,3 C 9,7 km/h (2 Bft)
15.08.2015 18:09 20,2 C 97 % 1007,6 hPa 0,0 l/m 5,0 km/h (1 Bft) W-NW 294 0 min 70 W/m 19,7 C 20,2 C 9,7 km/h (2 Bft)
15.08.2015 18:12 20,1 C 96 % 1007,6 hPa 0,0 l/m 3,8 km/h (1 Bft) W 270 0 min 79 W/m 19,4 C 20,1 C 6,4 km/h (2 Bft)
15.08.2015 18:15 20,0 C 96 % 1007,7 hPa 0,0 l/m 4,4 km/h (1 Bft) W 279 0 min 69 W/m 19,3 C 20,0 C 11,3 km/h (2 Bft)
15.08.2015 18:18 20,0 C 96 % 1007,7 hPa 0,0 l/m 4,9 km/h (1 Bft) W 273 0 min 84 W/m 19,3 C 20,0 C 9,7 km/h (2 Bft)
15.08.2015 18:21 20,1 C 97 % 1007,7 hPa 0,0 l/m 3,6 km/h (1 Bft) W-NW 299 0 min 77 W/m 19,6 C 20,1 C 6,4 km/h (2 Bft)
15.08.2015 18:24 20,2 C 97 % 1007,7 hPa 0,0 l/m 3,8 km/h (1 Bft) W 266 0 min 62 W/m 19,7 C 20,2 C 6,4 km/h (2 Bft)
15.08.2015 18:27 20,2 C 97 % 1007,7 hPa 0,0 l/m 4,3 km/h (1 Bft) W 266 0 min 67 W/m 19,7 C 20,2 C 9,7 km/h (2 Bft)
15.08.2015 18:30 20,3 C 97 % 1007,6 hPa 0,0 l/m 3,6 km/h (1 Bft) W-NW 291 0 min 70 W/m 19,8 C 20,3 C 9,7 km/h (2 Bft)
15.08.2015 18:33 20,3 C 97 % 1007,6 hPa 0,0 l/m 5,4 km/h (2 Bft) W 273 0 min 62 W/m 19,8 C 20,3 C 9,7 km/h (2 Bft)
15.08.2015 18:36 20,3 C 97 % 1007,6 hPa 0,0 l/m 5,2 km/h (1 Bft) W 268 0 min 39 W/m 19,8 C 20,3 C 9,7 km/h (2 Bft)
15.08.2015 18:39 20,2 C 97 % 1007,7 hPa 0,0 l/m 4,7 km/h (1 Bft) N-NW 329 0 min 32 W/m 19,7 C 20,2 C 11,3 km/h (2 Bft)
15.08.2015 18:42 20,2 C 96 % 1007,8 hPa 0,0 l/m 4,8 km/h (1 Bft) W 271 0 min 23 W/m 19,5 C 20,2 C 11,3 km/h (2 Bft)
15.08.2015 18:45 20,1 C 97 % 1007,8 hPa 0,0 l/m 2,1 km/h (1 Bft) N-NW 330 0 min 19 W/m 19,6 C 20,1 C 3,2 km/h (1 Bft)
15.08.2015 18:48 20,1 C 97 % 1007,8 hPa 0,0 l/m 2,7 km/h (1 Bft) W 274 0 min 18 W/m 19,6 C 20,1 C 9,7 km/h (2 Bft)
15.08.2015 18:51 20,1 C 97 % 1007,8 hPa 0,0 l/m 4,6 km/h (1 Bft) NW 325 0 min 19 W/m 19,6 C 20,1 C 6,4 km/h (2 Bft)
15.08.2015 18:54 20,1 C 97 % 1007,8 hPa 0,0 l/m 2,7 km/h (1 Bft) W 281 0 min 18 W/m 19,6 C 20,1 C 9,7 km/h (2 Bft)
15.08.2015 18:57 20,1 C 97 % 1007,9 hPa 0,0 l/m 3,7 km/h (1 Bft) W 272 0 min 18 W/m 19,6 C 20,1 C 6,4 km/h (2 Bft)
15.08.2015 19:00 20,1 C 97 % 1007,7 hPa 0,0 l/m 3,7 km/h (1 Bft) NW 310 0 min 16 W/m 19,6 C 20,1 C 6,4 km/h (2 Bft)
15.08.2015 19:03 20,1 C 97 % 1007,7 hPa 0,0 l/m 2,4 km/h (1 Bft) NW 311 0 min 14 W/m 19,6 C 20,1 C 6,4 km/h (2 Bft)
15.08.2015 19:06 20,2 C 97 % 1007,8 hPa 0,0 l/m 3,5 km/h (1 Bft) W 279 0 min 11 W/m 19,7 C 20,2 C 6,4 km/h (2 Bft)
15.08.2015 19:09 20,1 C 97 % 1007,9 hPa 0,0 l/m 3,8 km/h (1 Bft) W 279 0 min 7 W/m 19,6 C 20,1 C 9,7 km/h (2 Bft)
15.08.2015 19:12 20,1 C 97 % 1007,9 hPa 0,0 l/m 4,1 km/h (1 Bft) W 261 0 min 11 W/m 19,6 C 20,1 C 11,3 km/h (2 Bft)
15.08.2015 19:15 20,1 C 97 % 1007,9 hPa 0,0 l/m 3,6 km/h (1 Bft) W-NW 300 0 min 12 W/m 19,6 C 20,1 C 9,7 km/h (2 Bft)
15.08.2015 19:18 20,1 C 97 % 1007,9 hPa 0,0 l/m 4,3 km/h (1 Bft) NW 311 0 min 16 W/m 19,6 C 20,1 C 11,3 km/h (2 Bft)
15.08.2015 19:21 20,0 C 97 % 1007,9 hPa 0,0 l/m 5,0 km/h (1 Bft) NW 319 0 min 16 W/m 19,5 C 20,0 C 9,7 km/h (2 Bft)
15.08.2015 19:24 20,0 C 97 % 1007,9 hPa 0,0 l/m 3,2 km/h (1 Bft) NW 325 0 min 18 W/m 19,5 C 20,0 C 12,9 km/h (3 Bft)
15.08.2015 19:27 19,9 C 97 % 1007,9 hPa 0,0 l/m 6,0 km/h (2 Bft) W 270 0 min 18 W/m 19,4 C 19,9 C 12,9 km/h (3 Bft)
15.08.2015 19:30 19,9 C 97 % 1008,0 hPa 0,0 l/m 8,5 km/h (2 Bft) NW 326 0 min 19 W/m 19,4 C 19,1 C 14,5 km/h (3 Bft)
15.08.2015 19:33 19,9 C 97 % 1008,0 hPa 0,0 l/m 4,4 km/h (1 Bft) N-NW 336 0 min 18 W/m 19,4 C 19,9 C 9,7 km/h (2 Bft)
15.08.2015 19:36 19,9 C 97 % 1008,1 hPa 0,0 l/m 5,9 km/h (2 Bft) W-NW 300 0 min 21 W/m 19,4 C 19,9 C 14,5 km/h (3 Bft)
15.08.2015 19:39 19,9 C 97 % 1008,1 hPa 0,0 l/m 3,8 km/h (1 Bft) N-NW 348 0 min 19 W/m 19,4 C 19,9 C 9,7 km/h (2 Bft)
15.08.2015 19:42 19,8 C 97 % 1008,2 hPa 0,0 l/m 5,2 km/h (1 Bft) NW 321 0 min 23 W/m 19,3 C 19,8 C 11,3 km/h (2 Bft)
15.08.2015 19:45 19,8 C 97 % 1008,1 hPa 0,0 l/m 4,3 km/h (1 Bft) NW 307 0 min 32 W/m 19,3 C 19,8 C 12,9 km/h (3 Bft)
15.08.2015 19:48 19,8 C 97 % 1008,1 hPa 0,0 l/m 3,3 km/h (1 Bft) N 349 0 min 33 W/m 19,3 C 19,8 C 6,4 km/h (2 Bft)
15.08.2015 19:51 19,8 C 97 % 1008,1 hPa 0,0 l/m 3,6 km/h (1 Bft) W 268 0 min 33 W/m 19,3 C 19,8 C 6,4 km/h (2 Bft)
15.08.2015 19:54 19,7 C 97 % 1008,1 hPa 0,0 l/m 2,9 km/h (1 Bft) W 259 0 min 30 W/m 19,2 C 19,7 C 11,3 km/h (2 Bft)
15.08.2015 19:57 19,7 C 97 % 1008,1 hPa 0,0 l/m 3,9 km/h (1 Bft) W-NW 289 0 min 28 W/m 19,2 C 19,7 C 9,7 km/h (2 Bft)
15.08.2015 20:00 19,7 C 97 % 1008,1 hPa 0,0 l/m 4,2 km/h (1 Bft) N-NW 329 0 min 25 W/m 19,2 C 19,7 C 9,7 km/h (2 Bft)
15.08.2015 20:03 19,7 C 97 % 1008,2 hPa 0,0 l/m 4,8 km/h (1 Bft) NW 321 0 min 21 W/m 19,2 C 19,7 C 9,7 km/h (2 Bft)
15.08.2015 20:06 19,7 C 97 % 1008,2 hPa 0,0 l/m 4,2 km/h (1 Bft) NW 318 0 min 19 W/m 19,2 C 19,7 C 8,0 km/h (2 Bft)
15.08.2015 20:09 19,7 C 97 % 1008,3 hPa 0,0 l/m 4,0 km/h (1 Bft) N-NW 340 0 min 18 W/m 19,2 C 19,7 C 9,7 km/h (2 Bft)
15.08.2015 20:12 19,7 C 97 % 1008,4 hPa 0,0 l/m 3,3 km/h (1 Bft) NW 319 0 min 16 W/m 19,2 C 19,7 C 9,7 km/h (2 Bft)
15.08.2015 20:15 19,7 C 97 % 1008,5 hPa 0,0 l/m 4,8 km/h (1 Bft) NW 315 0 min 14 W/m 19,2 C 19,7 C 8,0 km/h (2 Bft)
15.08.2015 20:18 19,7 C 97 % 1008,5 hPa 0,0 l/m 4,6 km/h (1 Bft) NW 317 0 min 12 W/m 19,2 C 19,7 C 9,7 km/h (2 Bft)
15.08.2015 20:21 19,7 C 97 % 1008,6 hPa 0,0 l/m 6,1 km/h (2 Bft) NW 306 0 min 14 W/m 19,2 C 19,7 C 8,0 km/h (2 Bft)
15.08.2015 20:24 19,6 C 97 % 1008,5 hPa 0,0 l/m 4,9 km/h (1 Bft) NW 321 0 min 14 W/m 19,1 C 19,6 C 9,7 km/h (2 Bft)
15.08.2015 20:27 19,6 C 97 % 1008,5 hPa 0,0 l/m 4,9 km/h (1 Bft) N 355 0 min 11 W/m 19,1 C 19,6 C 9,7 km/h (2 Bft)
15.08.2015 20:30 19,6 C 97 % 1008,6 hPa 0,0 l/m 4,4 km/h (1 Bft) N-NW 342 0 min 9 W/m 19,1 C 19,6 C 8,0 km/h (2 Bft)
15.08.2015 20:33 19,6 C 97 % 1008,6 hPa 0,0 l/m 4,8 km/h (1 Bft) N 350 0 min 9 W/m 19,1 C 19,6 C 8,0 km/h (2 Bft)
15.08.2015 20:36 19,5 C 97 % 1008,7 hPa 0,0 l/m 2,8 km/h (1 Bft) N-NW 348 0 min 7 W/m 19,0 C 19,5 C 6,4 km/h (2 Bft)
15.08.2015 20:39 19,5 C 97 % 1008,8 hPa 0,0 l/m 4,4 km/h (1 Bft) NW 326 0 min 5 W/m 19,0 C 19,5 C 8,0 km/h (2 Bft)
15.08.2015 20:42 19,5 C 97 % 1008,9 hPa 0,0 l/m 3,6 km/h (1 Bft) N-NW 331 0 min 5 W/m 19,0 C 19,5 C 6,4 km/h (2 Bft)
15.08.2015 20:45 19,4 C 97 % 1008,9 hPa 0,0 l/m 2,6 km/h (1 Bft) N-NW 329 0 min 5 W/m 18,9 C 19,4 C 4,8 km/h (1 Bft)
15.08.2015 20:48 19,4 C 97 % 1009,0 hPa 0,0 l/m 3,6 km/h (1 Bft) NW 322 0 min 5 W/m 18,9 C 19,4 C 6,4 km/h (2 Bft)
15.08.2015 20:51 19,4 C 97 % 1009,1 hPa 0,0 l/m 3,0 km/h (1 Bft) W-SW 246 0 min 0 W/m 18,9 C 19,4 C 9,7 km/h (2 Bft)
15.08.2015 20:54 19,4 C 97 % 1009,1 hPa 0,0 l/m 3,4 km/h (1 Bft) W-NW 286 0 min 5 W/m 18,9 C 19,4 C 8,0 km/h (2 Bft)
15.08.2015 20:57 19,5 C 97 % 1009,1 hPa 0,0 l/m 4,4 km/h (1 Bft) NW 325 0 min 5 W/m 19,0 C 19,5 C 9,7 km/h (2 Bft)
15.08.2015 21:00 19,5 C 97 % 1009,2 hPa 0,0 l/m 5,5 km/h (2 Bft) W 269 0 min 0 W/m 19,0 C 19,5 C 9,7 km/h (2 Bft)
15.08.2015 21:03 19,5 C 97 % 1009,1 hPa 0,0 l/m 6,2 km/h (2 Bft) W-NW 299 0 min 0 W/m 19,0 C 19,5 C 11,3 km/h (2 Bft)
15.08.2015 21:06 19,4 C 97 % 1009,2 hPa 0,0 l/m 6,3 km/h (2 Bft) W-NW 296 0 min 0 W/m 18,9 C 19,4 C 11,3 km/h (2 Bft)
15.08.2015 21:09 19,4 C 97 % 1009,3 hPa 0,0 l/m 5,3 km/h (1 Bft) N-NW 330 0 min 0 W/m 18,9 C 19,4 C 12,9 km/h (3 Bft)
15.08.2015 21:12 19,4 C 97 % 1009,3 hPa 0,0 l/m 2,3 km/h (1 Bft) W 280 0 min 0 W/m 18,9 C 19,4 C 8,0 km/h (2 Bft)
15.08.2015 21:15 19,4 C 97 % 1009,4 hPa 0,0 l/m 3,4 km/h (1 Bft) NW 322 0 min 0 W/m 18,9 C 19,4 C 8,0 km/h (2 Bft)
15.08.2015 21:18 19,3 C 97 % 1009,4 hPa 0,0 l/m 5,6 km/h (2 Bft) N-NW 333 0 min 0 W/m 18,8 C 19,3 C 9,7 km/h (2 Bft)
15.08.2015 21:21 19,3 C 97 % 1009,4 hPa 0,0 l/m 6,7 km/h (2 Bft) N-NW 334 0 min 0 W/m 18,8 C 19,2 C 9,7 km/h (2 Bft)
15.08.2015 21:24 19,3 C 97 % 1009,4 hPa 0,0 l/m 5,4 km/h (2 Bft) NW 318 0 min 0 W/m 18,8 C 19,3 C 9,7 km/h (2 Bft)
15.08.2015 21:27 19,3 C 97 % 1009,5 hPa 0,0 l/m 4,7 km/h (1 Bft) NW 307 0 min 0 W/m 18,8 C 19,3 C 9,7 km/h (2 Bft)
15.08.2015 21:30 19,3 C 97 % 1009,4 hPa 0,0 l/m 3,5 km/h (1 Bft) N-NW 332 0 min 0 W/m 18,8 C 19,3 C 4,8 km/h (1 Bft)
15.08.2015 21:33 19,3 C 97 % 1009,4 hPa 0,0 l/m 5,9 km/h (2 Bft) NW 322 0 min 0 W/m 18,8 C 19,3 C 12,9 km/h (3 Bft)
15.08.2015 21:36 19,3 C 97 % 1009,4 hPa 0,0 l/m 5,6 km/h (2 Bft) NW 319 0 min 0 W/m 18,8 C 19,3 C 12,9 km/h (3 Bft)
15.08.2015 21:39 19,3 C 97 % 1009,4 hPa 0,0 l/m 6,5 km/h (2 Bft) NW 309 0 min 0 W/m 18,8 C 19,3 C 9,7 km/h (2 Bft)
15.08.2015 21:42 19,2 C 97 % 1009,4 hPa 0,0 l/m 5,4 km/h (2 Bft) NW 317 0 min 0 W/m 18,7 C 19,2 C 11,3 km/h (2 Bft)
15.08.2015 21:45 19,2 C 97 % 1009,3 hPa 0,0 l/m 6,2 km/h (2 Bft) N 360 0 min 0 W/m 18,7 C 19,2 C 12,9 km/h (3 Bft)
15.08.2015 21:48 19,2 C 97 % 1009,4 hPa 0,0 l/m 5,3 km/h (1 Bft) NW 312 0 min 0 W/m 18,7 C 19,2 C 14,5 km/h (3 Bft)
15.08.2015 21:51 19,2 C 97 % 1009,4 hPa 0,0 l/m 4,4 km/h (1 Bft) NW 319 0 min 0 W/m 18,7 C 19,2 C 8,0 km/h (2 Bft)
15.08.2015 21:54 19,2 C 97 % 1009,4 hPa 0,0 l/m 4,0 km/h (1 Bft) NW 313 0 min 0 W/m 18,7 C 19,2 C 8,0 km/h (2 Bft)
15.08.2015 21:57 19,2 C 97 % 1009,4 hPa 0,0 l/m 5,3 km/h (1 Bft) N-NW 331 0 min 0 W/m 18,7 C 19,2 C 8,0 km/h (2 Bft)
15.08.2015 22:00 19,2 C 97 % 1009,4 hPa 0,0 l/m 5,5 km/h (2 Bft) N 360 0 min 0 W/m 18,7 C 19,2 C 11,3 km/h (2 Bft)
15.08.2015 22:03 19,2 C 97 % 1009,4 hPa 0,0 l/m 4,5 km/h (1 Bft) N-NW 342 0 min 0 W/m 18,7 C 19,2 C 6,4 km/h (2 Bft)
15.08.2015 22:06 19,2 C 97 % 1009,4 hPa 0,0 l/m 5,7 km/h (2 Bft) NW 321 0 min 0 W/m 18,7 C 19,2 C 9,7 km/h (2 Bft)
15.08.2015 22:09 19,2 C 97 % 1009,3 hPa 0,0 l/m 6,8 km/h (2 Bft) N-NW 336 0 min 0 W/m 18,7 C 19,0 C 12,9 km/h (3 Bft)
15.08.2015 22:12 19,2 C 97 % 1009,4 hPa 0,0 l/m 7,0 km/h (2 Bft) N-NW 338 0 min 0 W/m 18,7 C 18,9 C 14,5 km/h (3 Bft)
15.08.2015 22:15 19,2 C 97 % 1009,3 hPa 0,0 l/m 6,2 km/h (2 Bft) NW 324 0 min 0 W/m 18,7 C 19,2 C 14,5 km/h (3 Bft)
15.08.2015 22:18 19,1 C 97 % 1009,4 hPa 0,0 l/m 7,3 km/h (2 Bft) W-NW 298 0 min 0 W/m 18,6 C 18,7 C 12,9 km/h (3 Bft)
15.08.2015 22:21 19,1 C 97 % 1009,4 hPa 0,0 l/m 6,7 km/h (2 Bft) W-NW 293 0 min 0 W/m 18,6 C 19,0 C 11,3 km/h (2 Bft)
15.08.2015 22:24 19,1 C 97 % 1009,4 hPa 0,0 l/m 5,5 km/h (2 Bft) W-NW 303 0 min 0 W/m 18,6 C 19,1 C 12,9 km/h (3 Bft)
15.08.2015 22:27 19,1 C 97 % 1009,5 hPa 0,0 l/m 5,9 km/h (2 Bft) NW 320 0 min 0 W/m 18,6 C 19,1 C 14,5 km/h (3 Bft)
15.08.2015 22:30 19,0 C 97 % 1009,6 hPa 0,0 l/m 6,9 km/h (2 Bft) NW 311 0 min 0 W/m 18,5 C 18,8 C 12,9 km/h (3 Bft)
15.08.2015 22:33 18,9 C 97 % 1009,7 hPa 0,0 l/m 5,9 km/h (2 Bft) W-NW 301 0 min 0 W/m 18,4 C 18,9 C 12,9 km/h (3 Bft)
15.08.2015 22:36 18,9 C 97 % 1009,7 hPa 0,0 l/m 4,1 km/h (1 Bft) W 277 0 min 0 W/m 18,4 C 18,9 C 6,4 km/h (2 Bft)
15.08.2015 22:39 18,9 C 97 % 1009,7 hPa 0,0 l/m 5,5 km/h (2 Bft) N-NW 339 0 min 0 W/m 18,4 C 18,9 C 14,5 km/h (3 Bft)
15.08.2015 22:42 18,9 C 97 % 1009,7 hPa 0,0 l/m 4,4 km/h (1 Bft) W-NW 298 0 min 0 W/m 18,4 C 18,9 C 8,0 km/h (2 Bft)
15.08.2015 22:45 18,9 C 97 % 1009,7 hPa 0,0 l/m 6,0 km/h (2 Bft) N-NW 336 0 min 0 W/m 18,4 C 18,9 C 14,5 km/h (3 Bft)
15.08.2015 22:48 18,8 C 97 % 1009,7 hPa 0,0 l/m 5,4 km/h (2 Bft) NW 308 0 min 0 W/m 18,3 C 18,8 C 9,7 km/h (2 Bft)
15.08.2015 22:51 18,8 C 97 % 1009,7 hPa 0,0 l/m 5,7 km/h (2 Bft) NW 310 0 min 0 W/m 18,3 C 18,8 C 12,9 km/h (3 Bft)
15.08.2015 22:54 18,8 C 97 % 1009,7 hPa 0,0 l/m 7,2 km/h (2 Bft) W-NW 300 0 min 0 W/m 18,3 C 18,4 C 12,9 km/h (3 Bft)
15.08.2015 22:57 18,8 C 97 % 1009,6 hPa 0,0 l/m 6,1 km/h (2 Bft) N-NW 339 0 min 0 W/m 18,3 C 18,8 C 12,9 km/h (3 Bft)
15.08.2015 23:00 18,8 C 97 % 1009,7 hPa 0,0 l/m 6,2 km/h (2 Bft) NW 311 0 min 0 W/m 18,3 C 18,8 C 14,5 km/h (3 Bft)
15.08.2015 23:03 18,8 C 97 % 1009,8 hPa 0,0 l/m 6,2 km/h (2 Bft) N-NW 328 0 min 0 W/m 18,3 C 18,8 C 9,7 km/h (2 Bft)
15.08.2015 23:06 18,8 C 97 % 1009,8 hPa 0,0 l/m 5,3 km/h (1 Bft) NW 317 0 min 0 W/m 18,3 C 18,8 C 12,9 km/h (3 Bft)
15.08.2015 23:09 18,8 C 97 % 1009,9 hPa 0,0 l/m 6,9 km/h (2 Bft) N-NW 333 0 min 0 W/m 18,3 C 18,6 C 12,9 km/h (3 Bft)
15.08.2015 23:12 18,8 C 97 % 1009,9 hPa 0,0 l/m 4,7 km/h (1 Bft) NW 319 0 min 0 W/m 18,3 C 18,8 C 8,0 km/h (2 Bft)
15.08.2015 23:15 18,8 C 97 % 1009,9 hPa 0,0 l/m 6,4 km/h (2 Bft) NW 317 0 min 0 W/m 18,3 C 18,8 C 12,9 km/h (3 Bft)
15.08.2015 23:18 18,8 C 97 % 1009,9 hPa 0,0 l/m 6,0 km/h (2 Bft) N-NW 344 0 min 0 W/m 18,3 C 18,8 C 14,5 km/h (3 Bft)
15.08.2015 23:21 18,8 C 97 % 1009,9 hPa 0,0 l/m 5,4 km/h (2 Bft) W-NW 294 0 min 0 W/m 18,3 C 18,8 C 12,9 km/h (3 Bft)
15.08.2015 23:24 18,8 C 97 % 1009,9 hPa 0,0 l/m 5,3 km/h (1 Bft) W-NW 292 0 min 0 W/m 18,3 C 18,8 C 12,9 km/h (3 Bft)
15.08.2015 23:27 18,7 C 97 % 1010,0 hPa 0,0 l/m 6,8 km/h (2 Bft) W-NW 293 0 min 0 W/m 18,2 C 18,5 C 11,3 km/h (2 Bft)
15.08.2015 23:30 18,7 C 97 % 1010,0 hPa 0,0 l/m 6,6 km/h (2 Bft) NW 313 0 min 0 W/m 18,2 C 18,6 C 12,9 km/h (3 Bft)
15.08.2015 23:33 18,7 C 97 % 1010,0 hPa 0,0 l/m 7,6 km/h (2 Bft) N-NW 348 0 min 0 W/m 18,2 C 18,2 C 14,5 km/h (3 Bft)
15.08.2015 23:36 18,7 C 97 % 1009,9 hPa 0,0 l/m 7,5 km/h (2 Bft) N 360 0 min 0 W/m 18,2 C 18,2 C 14,5 km/h (3 Bft)
15.08.2015 23:39 18,6 C 97 % 1009,8 hPa 0,0 l/m 8,5 km/h (2 Bft) N-NW 345 0 min 0 W/m 18,1 C 17,7 C 17,7 km/h (3 Bft)
15.08.2015 23:42 18,7 C 97 % 1009,9 hPa 0,0 l/m 7,4 km/h (2 Bft) NW 310 0 min 0 W/m 18,2 C 18,2 C 14,5 km/h (3 Bft)
15.08.2015 23:45 18,7 C 97 % 1009,9 hPa 0,0 l/m 8,7 km/h (2 Bft) W-NW 288 0 min 0 W/m 18,2 C 17,7 C 14,5 km/h (3 Bft)
15.08.2015 23:48 18,6 C 97 % 1010,0 hPa 0,0 l/m 7,3 km/h (2 Bft) W-NW 296 0 min 0 W/m 18,1 C 18,2 C 12,9 km/h (3 Bft)
15.08.2015 23:51 18,6 C 97 % 1010,0 hPa 0,0 l/m 7,0 km/h (2 Bft) W-NW 292 0 min 0 W/m 18,1 C 18,3 C 12,9 km/h (3 Bft)
15.08.2015 23:54 18,6 C 97 % 1010,0 hPa 0,0 l/m 7,6 km/h (2 Bft) NW 315 0 min 0 W/m 18,1 C 18,1 C 14,5 km/h (3 Bft)
15.08.2015 23:57 18,7 C 97 % 1010,0 hPa 0,0 l/m 7,3 km/h (2 Bft) NW 315 0 min 0 W/m 18,2 C 18,3 C 14,5 km/h (3 Bft)
_ Min-Zeit 06:21 13:33 02:42 - 00:00 - - - - 06:21 23:39 00:00
Minimum _ 18,6 C 74 % 1004,1 hPa - 0,0 km/h (0 Bft) - - - - 18,1 C 17,7 C 0,0 km/h (0 Bft)
_ Max-Zeit 13:39 07:21 23:27 17:12 17:12 - - 12:42 13:30 13:30 13:33 17:12
Maximum _ 26,2 C 98 % 1010,0 hPa 4,6 l/m 13,9 km/h
SW (3 Bft)
- - 3 min 856 W/m 22,4 C 26,1 C 22,5 km/h
SW (4 Bft)
Durchschnitt _ 20,3 C 94 % 1006,6 hPa #18,0 l/m 3,4 km/h (1 Bft) NW - #54 min. 120 W/m 19,3 C 20,2 C 7,2 km/h (2 Bft)
copyright by Holger Just